GEFSSE_prec_meanprecacc_264.txt.gz
Total_Precipitation_Accumulation
2.00 2.03 2.90 2.73 2.49 2.41 2.31 2.28 2.21 2.10 2.01 1.83 1.64 1.51 1.46 1.41 1.31 1.24 1.17 1.11 1.17 1.32 1.29 1.45 1.54 1.36 1.33 1.34 1.31 1.32 1.35 1.46 1.39 1.20 1.12 1.13 1.20 1.47 1.63 1.73 1.77 1.71 1.80
1.58 1.97 2.92 2.78 2.58 2.40 2.30 2.35 2.24 1.98 1.76 1.55 1.48 1.44 1.42 1.34 1.29 1.15 1.09 1.11 1.16 1.21 1.26 1.43 1.49 1.38 1.37 1.41 1.47 1.52 1.53 1.47 1.38 1.26 1.33 1.37 1.45 1.61 1.63 1.68 1.93 1.92 1.79
1.42 1.65 2.24 2.82 2.65 2.42 2.31 2.34 2.25 1.98 1.62 1.39 1.36 1.37 1.26 1.19 1.16 1.11 1.12 1.06 1.05 1.05 1.08 1.26 1.45 1.46 1.41 1.39 1.48 1.54 1.58 1.48 1.42 1.53 1.95 2.36 2.00 1.81 1.60 1.67 1.79 1.69 1.63
1.28 1.46 1.75 2.54 2.48 2.42 2.37 2.17 2.12 1.86 1.52 1.38 1.34 1.28 1.14 1.13 1.19 1.25 1.21 1.11 1.10 1.06 0.99 1.05 1.30 1.47 1.45 1.39 1.32 1.35 1.47 1.49 1.56 1.83 2.27 2.70 2.52 2.11 1.88 1.72 1.67 1.63 1.63
1.28 1.49 2.12 2.64 2.40 2.33 2.19 1.98 1.96 1.83 1.58 1.46 1.39 1.28 1.22 1.20 1.17 1.25 1.22 1.20 1.24 1.18 1.13 1.17 1.38 1.40 1.41 1.40 1.30 1.31 1.46 1.67 1.85 1.78 2.06 2.42 2.70 2.47 1.97 1.74 1.72 1.75 1.84
1.31 1.50 2.09 2.38 2.12 1.99 1.91 1.83 1.76 1.81 1.78 1.54 1.36 1.33 1.34 1.29 1.33 1.37 1.35 1.27 1.33 1.31 1.33 1.34 1.38 1.42 1.42 1.47 1.46 1.39 1.57 1.82 1.73 1.71 2.07 2.39 2.52 2.33 1.90 1.74 1.84 1.97 2.08
1.14 1.25 1.67 2.07 1.89 1.78 1.75 1.74 1.64 1.72 1.80 1.65 1.37 1.42 1.45 1.39 1.46 1.51 1.49 1.38 1.40 1.40 1.41 1.45 1.38 1.47 1.50 1.50 1.58 1.59 1.65 1.69 1.49 1.69 2.10 2.45 2.36 2.14 1.98 1.82 1.83 2.08 2.31
1.19 1.14 1.30 1.68 1.74 1.61 1.62 1.74 1.65 1.63 1.72 1.64 1.50 1.48 1.40 1.43 1.53 1.59 1.50 1.39 1.36 1.38 1.46 1.47 1.43 1.49 1.48 1.55 1.64 1.79 1.84 1.60 1.24 1.36 1.64 2.26 2.66 2.47 2.05 1.78 1.83 2.00 2.23
1.48 1.35 1.20 1.21 1.35 1.44 1.54 1.67 1.64 1.58 1.59 1.52 1.58 1.59 1.59 1.60 1.56 1.48 1.42 1.37 1.38 1.42 1.47 1.45 1.38 1.38 1.45 1.55 1.60 1.74 1.87 1.75 1.41 1.36 1.39 2.10 2.69 2.59 2.07 1.76 1.70 1.92 2.07
1.55 1.42 1.20 1.07 1.09 1.20 1.20 1.40 1.61 1.64 1.59 1.50 1.54 1.62 1.68 1.63 1.48 1.41 1.30 1.38 1.48 1.50 1.59 1.54 1.43 1.39 1.45 1.46 1.55 1.75 1.86 1.64 1.28 1.23 1.48 2.04 2.76 2.78 2.39 1.82 1.58 1.59 1.71
1.29 1.21 1.13 1.07 1.11 1.21 1.24 1.26 1.56 1.63 1.55 1.36 1.32 1.48 1.49 1.31 1.27 1.30 1.32 1.61 1.62 1.69 1.79 1.71 1.61 1.55 1.42 1.42 1.61 1.79 1.65 1.36 1.31 1.33 1.68 2.29 2.73 2.73 2.52 2.06 1.66 1.50 1.50
1.01 0.91 0.89 0.90 0.98 1.10 1.15 1.48 1.73 1.56 1.48 1.22 1.24 1.20 1.25 1.29 1.40 1.26 1.37 1.72 1.78 1.83 1.80 1.81 1.74 1.56 1.25 1.07 1.32 1.43 1.28 1.29 1.30 1.31 1.73 2.40 2.73 2.71 2.46 2.16 1.83 1.65 1.58
0.77 0.70 0.65 0.61 0.63 0.72 0.93 1.27 1.58 1.72 1.70 1.65 1.47 1.28 1.28 1.11 1.02 0.99 1.07 1.25 1.35 1.44 1.39 1.46 1.44 1.20 1.08 1.06 1.07 1.09 1.26 1.24 1.39 1.40 1.79 2.39 2.67 2.74 2.54 2.25 1.95 1.75 1.69
0.74 0.69 0.60 0.56 0.52 0.55 0.62 0.79 1.02 1.21 1.30 1.36 1.26 1.13 1.19 1.07 0.98 1.00 1.00 1.00 1.00 1.11 1.26 1.27 1.27 1.16 1.04 0.98 0.95 1.06 1.15 1.13 1.32 1.57 1.91 2.15 2.45 2.75 2.71 2.39 2.12 1.93 1.90
0.84 0.84 0.74 0.61 0.55 0.56 0.60 0.66 0.73 0.90 1.02 1.06 1.09 1.03 1.06 1.08 1.06 1.01 0.93 0.94 0.87 0.98 1.14 1.25 1.21 1.15 1.16 1.13 1.03 1.14 1.22 1.30 1.34 1.43 1.60 1.82 2.12 2.60 2.93 2.86 2.55 2.26 2.13
0.89 0.88 0.86 0.74 0.70 0.67 0.63 0.64 0.68 0.77 0.84 0.85 0.83 0.84 0.96 1.05 1.04 1.03 1.01 1.04 1.00 1.05 1.19 1.21 1.13 1.20 1.29 1.21 1.07 1.11 1.20 1.26 1.33 1.35 1.42 1.61 1.85 2.12 2.71 3.05 2.92 2.70 2.67
0.87 0.83 0.83 0.82 0.83 0.82 0.76 0.70 0.69 0.76 0.82 0.82 0.79 0.73 0.76 0.86 0.92 0.97 0.99 1.00 1.05 1.16 1.23 1.29 1.14 1.18 1.19 1.13 1.13 1.13 1.13 1.16 1.17 1.20 1.19 1.28 1.46 1.75 2.26 2.75 3.04 3.08 3.13
0.74 0.72 0.78 0.77 0.79 0.84 0.85 0.83 0.85 0.83 0.89 0.83 0.82 0.75 0.70 0.76 0.85 1.00 1.02 1.00 1.02 1.18 1.31 1.40 1.33 1.31 1.29 1.25 1.25 1.23 1.15 1.18 1.09 1.11 1.15 1.16 1.35 1.37 1.73 2.17 2.51 2.73 3.05
0.67 0.67 0.67 0.71 0.70 0.76 0.82 0.85 0.96 0.99 1.00 0.93 0.91 0.81 0.78 0.84 0.95 1.14 1.24 1.24 1.22 1.26 1.29 1.30 1.40 1.43 1.42 1.42 1.33 1.30 1.26 1.18 1.20 1.10 1.14 1.22 1.24 1.32 1.56 1.76 1.92 2.03 2.42
0.65 0.64 0.62 0.67 0.67 0.69 0.81 0.93 1.09 1.22 1.19 1.18 1.09 0.97 0.98 1.13 1.30 1.47 1.47 1.55 1.60 1.50 1.50 1.47 1.53 1.48 1.43 1.50 1.40 1.28 1.25 1.16 1.26 1.29 1.27 1.32 1.33 1.32 1.65 1.83 1.78 1.60 1.90
0.58 0.60 0.59 0.57 0.66 0.68 0.72 0.85 1.07 1.36 1.47 1.56 1.47 1.28 1.22 1.33 1.59 1.84 1.81 1.90 1.97 1.88 1.84 1.85 2.08 2.02 1.74 1.57 1.67 1.53 1.37 1.23 1.37 1.42 1.39 1.49 1.57 1.67 1.86 1.91 1.73 1.54 1.43
0.46 0.52 0.53 0.52 0.60 0.65 0.70 0.86 1.02 1.18 1.19 1.36 1.47 1.44 1.35 1.35 1.50 1.65 1.93 2.07 2.05 2.15 2.26 2.25 2.63 2.76 2.27 1.84 1.93 2.18 1.93 1.72 1.54 1.40 1.45 1.52 1.65 1.85 1.94 1.83 1.66 1.46 1.31
0.36 0.37 0.39 0.42 0.50 0.62 0.76 0.96 1.17 1.36 1.44 1.51 1.43 1.51 1.52 1.44 1.48 1.59 1.75 1.90 1.94 2.07 2.23 2.35 2.68 3.22 2.97 2.34 2.15 2.55 2.31 2.08 1.98 1.68 1.52 1.51 1.57 1.83 2.11 2.04 1.80 1.59 1.39
0.33 0.31 0.34 0.43 0.55 0.74 0.94 1.16 1.39 1.59 1.63 1.52 1.55 1.59 1.48 1.40 1.36 1.45 1.59 1.72 1.85 1.89 2.05 2.15 2.29 2.85 3.25 2.92 2.63 2.34 2.01 1.96 2.13 2.11 1.78 1.60 1.59 1.72 1.94 1.93 1.80 1.74 1.58
0.37 0.38 0.44 0.64 0.86 1.09 1.29 1.54 1.81 1.78 1.67 1.57 1.56 1.56 1.51 1.50 1.46 1.46 1.59 1.67 1.70 1.77 1.89 2.23 2.50 2.79 3.04 3.03 3.02 2.81 2.52 2.23 1.91 2.16 2.20 1.89 1.76 1.71 1.77 1.81 1.73 1.73 1.71
0.66 0.79 0.98 1.24 1.41 1.50 1.61 1.75 1.87 1.81 1.81 1.75 1.57 1.49 1.49 1.54 1.59 1.61 1.66 1.67 1.65 1.70 1.82 2.06 2.37 2.60 2.92 3.13 3.08 2.89 2.75 2.62 2.38 2.30 2.17 2.02 2.03 1.86 1.74 1.71 1.60 1.59 1.71

GEFSSE_prec_meanprecacc_270.txt.gz
Total_Precipitation_Accumulation
2.01 2.04 2.91 2.74 2.52 2.45 2.35 2.32 2.26 2.18 2.10 1.91 1.73 1.61 1.58 1.53 1.40 1.34 1.25 1.17 1.23 1.38 1.36 1.53 1.63 1.48 1.47 1.50 1.47 1.45 1.47 1.57 1.47 1.27 1.18 1.19 1.28 1.55 1.71 1.81 1.84 1.77 1.87
1.59 1.98 2.95 2.80 2.61 2.43 2.33 2.37 2.28 2.04 1.85 1.64 1.58 1.56 1.54 1.45 1.36 1.21 1.15 1.17 1.21 1.29 1.35 1.52 1.57 1.48 1.49 1.52 1.57 1.61 1.60 1.54 1.45 1.33 1.41 1.45 1.53 1.68 1.70 1.74 1.98 1.98 1.86
1.43 1.68 2.27 2.87 2.69 2.46 2.35 2.39 2.31 2.05 1.70 1.45 1.41 1.43 1.33 1.24 1.23 1.18 1.18 1.14 1.13 1.14 1.18 1.36 1.55 1.54 1.50 1.48 1.57 1.61 1.65 1.54 1.50 1.63 2.06 2.46 2.08 1.87 1.65 1.72 1.84 1.74 1.71
1.30 1.48 1.77 2.56 2.51 2.46 2.41 2.21 2.15 1.89 1.55 1.39 1.37 1.32 1.21 1.18 1.24 1.32 1.27 1.19 1.20 1.15 1.09 1.14 1.40 1.56 1.53 1.47 1.39 1.42 1.55 1.58 1.69 1.97 2.38 2.81 2.61 2.18 1.94 1.77 1.73 1.68 1.70
1.29 1.52 2.14 2.66 2.42 2.35 2.22 2.00 1.99 1.86 1.60 1.47 1.41 1.31 1.28 1.27 1.22 1.30 1.28 1.26 1.30 1.24 1.19 1.24 1.48 1.48 1.47 1.46 1.37 1.39 1.56 1.78 1.97 1.90 2.18 2.54 2.82 2.59 2.05 1.82 1.81 1.82 1.91
1.32 1.52 2.10 2.40 2.13 2.00 1.92 1.85 1.79 1.82 1.79 1.56 1.38 1.36 1.39 1.35 1.39 1.42 1.41 1.31 1.37 1.36 1.39 1.41 1.47 1.51 1.48 1.53 1.52 1.45 1.63 1.90 1.82 1.80 2.19 2.53 2.66 2.46 1.99 1.83 1.92 2.04 2.15
1.16 1.27 1.68 2.08 1.90 1.79 1.76 1.75 1.67 1.75 1.81 1.67 1.39 1.46 1.50 1.46 1.51 1.56 1.55 1.42 1.45 1.46 1.48 1.51 1.45 1.57 1.59 1.57 1.64 1.64 1.70 1.74 1.55 1.79 2.20 2.54 2.47 2.26 2.04 1.87 1.87 2.13 2.36
1.20 1.14 1.30 1.68 1.75 1.62 1.63 1.76 1.67 1.66 1.74 1.66 1.51 1.51 1.44 1.47 1.58 1.65 1.57 1.45 1.42 1.45 1.52 1.53 1.52 1.59 1.57 1.63 1.71 1.84 1.88 1.64 1.28 1.40 1.70 2.34 2.74 2.54 2.10 1.82 1.86 2.03 2.28
1.48 1.35 1.21 1.22 1.37 1.47 1.55 1.68 1.66 1.60 1.60 1.53 1.59 1.60 1.63 1.64 1.62 1.54 1.50 1.44 1.44 1.49 1.54 1.51 1.48 1.52 1.57 1.64 1.67 1.79 1.91 1.80 1.48 1.42 1.43 2.16 2.75 2.65 2.11 1.80 1.74 1.96 2.10
1.55 1.42 1.20 1.09 1.09 1.21 1.21 1.41 1.62 1.65 1.61 1.51 1.55 1.64 1.72 1.69 1.56 1.50 1.39 1.46 1.54 1.55 1.64 1.58 1.48 1.48 1.58 1.57 1.61 1.81 1.92 1.71 1.37 1.30 1.55 2.12 2.82 2.84 2.44 1.86 1.63 1.64 1.74
1.29 1.21 1.13 1.09 1.12 1.21 1.24 1.27 1.57 1.65 1.57 1.39 1.34 1.51 1.56 1.41 1.39 1.42 1.41 1.68 1.68 1.74 1.83 1.74 1.64 1.60 1.49 1.52 1.71 1.86 1.73 1.43 1.39 1.41 1.77 2.39 2.81 2.80 2.59 2.12 1.71 1.55 1.54
1.01 0.92 0.89 0.91 0.99 1.11 1.16 1.50 1.76 1.59 1.51 1.27 1.28 1.24 1.32 1.36 1.48 1.32 1.43 1.78 1.83 1.87 1.83 1.83 1.75 1.57 1.27 1.11 1.39 1.51 1.34 1.37 1.39 1.39 1.83 2.50 2.81 2.79 2.53 2.22 1.88 1.69 1.61
0.78 0.70 0.66 0.62 0.64 0.73 0.95 1.30 1.60 1.75 1.74 1.71 1.50 1.30 1.33 1.15 1.05 1.03 1.12 1.30 1.38 1.47 1.41 1.47 1.46 1.22 1.10 1.08 1.11 1.16 1.33 1.31 1.48 1.49 1.89 2.48 2.74 2.81 2.61 2.31 2.00 1.80 1.73
0.75 0.71 0.62 0.57 0.53 0.56 0.63 0.82 1.06 1.24 1.34 1.38 1.28 1.14 1.21 1.10 1.01 1.03 1.04 1.04 1.04 1.15 1.29 1.28 1.28 1.17 1.05 0.99 0.97 1.10 1.20 1.19 1.38 1.64 2.00 2.21 2.52 2.81 2.77 2.45 2.18 1.99 1.94
0.84 0.84 0.75 0.62 0.56 0.57 0.61 0.68 0.76 0.92 1.03 1.07 1.11 1.04 1.07 1.10 1.09 1.05 0.97 0.97 0.89 1.00 1.16 1.26 1.23 1.16 1.17 1.14 1.05 1.17 1.25 1.34 1.40 1.47 1.65 1.88 2.18 2.68 3.02 2.95 2.62 2.30 2.17
0.89 0.88 0.87 0.75 0.70 0.67 0.64 0.65 0.70 0.79 0.85 0.86 0.84 0.85 0.96 1.07 1.06 1.05 1.03 1.05 1.02 1.06 1.20 1.23 1.15 1.20 1.30 1.23 1.09 1.13 1.23 1.29 1.37 1.38 1.46 1.67 1.90 2.17 2.78 3.14 3.01 2.76 2.71
0.88 0.83 0.83 0.84 0.84 0.82 0.77 0.71 0.70 0.77 0.84 0.83 0.80 0.74 0.77 0.87 0.92 0.98 1.00 1.01 1.06 1.17 1.24 1.31 1.15 1.19 1.20 1.14 1.15 1.15 1.14 1.18 1.20 1.23 1.22 1.32 1.48 1.77 2.29 2.79 3.08 3.13 3.18
0.74 0.73 0.78 0.78 0.80 0.85 0.86 0.85 0.86 0.85 0.91 0.85 0.84 0.75 0.71 0.77 0.86 1.01 1.04 1.02 1.04 1.20 1.33 1.42 1.35 1.34 1.31 1.27 1.27 1.25 1.17 1.21 1.12 1.13 1.17 1.19 1.38 1.39 1.75 2.20 2.54 2.78 3.11
0.68 0.67 0.67 0.71 0.70 0.77 0.83 0.86 0.98 1.00 1.02 0.95 0.92 0.82 0.79 0.85 0.96 1.15 1.26 1.26 1.24 1.28 1.32 1.32 1.42 1.47 1.44 1.44 1.35 1.32 1.29 1.21 1.23 1.13 1.15 1.25 1.26 1.35 1.59 1.81 1.98 2.11 2.50
0.65 0.64 0.62 0.67 0.68 0.70 0.82 0.94 1.10 1.22 1.20 1.19 1.11 0.99 1.00 1.14 1.31 1.48 1.48 1.57 1.62 1.53 1.53 1.49 1.54 1.51 1.45 1.52 1.40 1.29 1.26 1.18 1.30 1.34 1.29 1.35 1.35 1.35 1.69 1.88 1.84 1.67 1.98
0.58 0.60 0.59 0.58 0.66 0.70 0.74 0.87 1.09 1.38 1.48 1.57 1.49 1.29 1.23 1.34 1.60 1.86 1.84 1.93 1.99 1.91 1.87 1.87 2.10 2.03 1.75 1.58 1.68 1.54 1.38 1.26 1.42 1.47 1.42 1.52 1.60 1.71 1.91 1.96 1.78 1.58 1.47
0.46 0.52 0.54 0.53 0.61 0.66 0.71 0.86 1.02 1.19 1.20 1.36 1.48 1.45 1.37 1.36 1.51 1.66 1.95 2.09 2.07 2.18 2.29 2.27 2.65 2.77 2.28 1.86 1.95 2.21 1.97 1.76 1.58 1.45 1.48 1.54 1.67 1.88 1.99 1.89 1.70 1.49 1.34
0.37 0.37 0.39 0.43 0.51 0.62 0.77 0.96 1.17 1.37 1.45 1.52 1.44 1.52 1.53 1.45 1.49 1.60 1.76 1.91 1.95 2.09 2.26 2.37 2.71 3.25 3.00 2.36 2.18 2.59 2.36 2.14 2.03 1.72 1.54 1.53 1.58 1.85 2.13 2.08 1.83 1.61 1.42
0.33 0.31 0.34 0.43 0.56 0.75 0.95 1.17 1.40 1.60 1.65 1.54 1.56 1.59 1.48 1.41 1.37 1.47 1.60 1.73 1.85 1.90 2.07 2.17 2.31 2.87 3.28 2.96 2.67 2.37 2.04 1.99 2.18 2.16 1.81 1.61 1.60 1.73 1.95 1.96 1.83 1.76 1.61
0.37 0.38 0.45 0.64 0.86 1.10 1.30 1.55 1.82 1.80 1.69 1.59 1.57 1.56 1.51 1.51 1.47 1.46 1.60 1.68 1.70 1.78 1.91 2.24 2.51 2.81 3.05 3.06 3.05 2.84 2.54 2.26 1.93 2.19 2.24 1.90 1.77 1.72 1.79 1.83 1.75 1.75 1.74
0.66 0.80 0.98 1.24 1.41 1.50 1.61 1.76 1.88 1.82 1.83 1.77 1.57 1.50 1.51 1.56 1.61 1.62 1.66 1.68 1.66 1.71 1.84 2.07 2.37 2.61 2.93 3.16 3.11 2.92 2.78 2.65 2.41 2.33 2.20 2.04 2.04 1.88 1.76 1.74 1.63 1.62 1.74

GEFSSE_prec_meanprecacc_276.txt.gz
Total_Precipitation_Accumulation
2.03 2.06 2.95 2.78 2.55 2.49 2.39 2.36 2.30 2.22 2.15 1.98 1.80 1.69 1.68 1.62 1.45 1.37 1.28 1.22 1.28 1.45 1.43 1.62 1.75 1.67 1.69 1.69 1.66 1.55 1.57 1.67 1.58 1.36 1.26 1.28 1.37 1.65 1.80 1.88 1.89 1.84 1.98
1.61 2.01 2.97 2.83 2.64 2.45 2.36 2.41 2.32 2.11 1.93 1.70 1.63 1.62 1.63 1.52 1.41 1.25 1.19 1.22 1.27 1.35 1.43 1.59 1.66 1.64 1.63 1.69 1.72 1.70 1.70 1.64 1.54 1.40 1.48 1.52 1.63 1.77 1.78 1.80 2.01 2.02 1.97
1.45 1.70 2.28 2.89 2.71 2.47 2.37 2.41 2.34 2.08 1.73 1.48 1.45 1.46 1.38 1.29 1.29 1.23 1.22 1.19 1.19 1.19 1.24 1.42 1.62 1.67 1.63 1.61 1.65 1.68 1.73 1.64 1.60 1.71 2.13 2.51 2.15 1.96 1.73 1.78 1.89 1.81 1.79
1.30 1.48 1.78 2.58 2.53 2.48 2.44 2.22 2.17 1.91 1.56 1.41 1.39 1.35 1.25 1.22 1.28 1.36 1.31 1.25 1.26 1.20 1.14 1.20 1.45 1.64 1.62 1.55 1.45 1.49 1.64 1.69 1.80 2.06 2.43 2.86 2.67 2.29 2.04 1.87 1.83 1.75 1.76
1.30 1.52 2.15 2.67 2.43 2.37 2.23 2.01 2.00 1.87 1.61 1.48 1.42 1.34 1.31 1.30 1.26 1.34 1.32 1.30 1.34 1.28 1.24 1.31 1.54 1.53 1.52 1.51 1.42 1.45 1.62 1.84 2.03 1.97 2.24 2.62 2.94 2.77 2.21 1.94 1.91 1.91 1.98
1.32 1.52 2.11 2.40 2.14 2.01 1.93 1.85 1.79 1.83 1.80 1.56 1.39 1.38 1.42 1.39 1.43 1.46 1.44 1.35 1.41 1.40 1.44 1.47 1.53 1.56 1.52 1.58 1.56 1.49 1.67 1.93 1.83 1.82 2.24 2.60 2.79 2.63 2.11 1.93 2.02 2.12 2.21
1.16 1.27 1.69 2.09 1.90 1.79 1.77 1.75 1.67 1.75 1.82 1.67 1.41 1.48 1.52 1.49 1.56 1.61 1.59 1.46 1.49 1.50 1.53 1.57 1.51 1.62 1.65 1.62 1.68 1.68 1.72 1.76 1.57 1.80 2.23 2.59 2.53 2.33 2.11 1.93 1.94 2.21 2.44
1.20 1.14 1.31 1.69 1.75 1.63 1.64 1.77 1.68 1.67 1.74 1.67 1.53 1.54 1.47 1.51 1.62 1.69 1.62 1.51 1.46 1.50 1.57 1.58 1.57 1.64 1.62 1.68 1.76 1.88 1.92 1.66 1.30 1.42 1.71 2.36 2.79 2.58 2.14 1.86 1.90 2.08 2.34
1.48 1.35 1.21 1.23 1.37 1.48 1.57 1.71 1.68 1.61 1.61 1.54 1.61 1.63 1.67 1.70 1.66 1.58 1.54 1.49 1.49 1.55 1.58 1.54 1.52 1.58 1.62 1.69 1.72 1.85 1.98 1.85 1.51 1.44 1.45 2.19 2.80 2.70 2.15 1.84 1.78 2.00 2.14
1.55 1.42 1.20 1.09 1.10 1.21 1.23 1.44 1.63 1.67 1.63 1.53 1.57 1.68 1.77 1.74 1.62 1.56 1.45 1.53 1.60 1.59 1.67 1.63 1.53 1.55 1.65 1.63 1.67 1.89 1.99 1.75 1.41 1.33 1.58 2.16 2.88 2.90 2.49 1.91 1.67 1.68 1.78
1.29 1.22 1.14 1.10 1.12 1.22 1.25 1.28 1.58 1.66 1.59 1.41 1.36 1.54 1.58 1.44 1.42 1.49 1.50 1.77 1.74 1.79 1.87 1.79 1.69 1.64 1.53 1.56 1.75 1.91 1.79 1.47 1.42 1.45 1.82 2.46 2.88 2.88 2.66 2.17 1.75 1.58 1.56
1.01 0.92 0.90 0.92 1.00 1.12 1.17 1.51 1.77 1.59 1.52 1.27 1.28 1.25 1.33 1.37 1.49 1.34 1.47 1.83 1.86 1.90 1.86 1.86 1.78 1.60 1.28 1.12 1.41 1.54 1.37 1.40 1.43 1.42 1.88 2.57 2.88 2.86 2.58 2.27 1.91 1.71 1.64
0.78 0.71 0.67 0.63 0.65 0.74 0.96 1.30 1.61 1.75 1.75 1.73 1.52 1.31 1.35 1.16 1.06 1.03 1.13 1.32 1.40 1.48 1.42 1.49 1.48 1.23 1.10 1.09 1.13 1.19 1.35 1.33 1.51 1.52 1.93 2.56 2.81 2.88 2.67 2.36 2.04 1.84 1.77
0.75 0.71 0.63 0.58 0.53 0.57 0.63 0.82 1.07 1.25 1.36 1.41 1.32 1.16 1.21 1.11 1.03 1.04 1.06 1.05 1.05 1.16 1.29 1.29 1.29 1.18 1.06 1.01 0.99 1.12 1.22 1.21 1.41 1.66 2.03 2.28 2.59 2.90 2.84 2.51 2.24 2.04 1.98
0.85 0.85 0.76 0.63 0.56 0.57 0.62 0.68 0.77 0.94 1.06 1.09 1.15 1.08 1.08 1.12 1.11 1.07 0.98 0.98 0.90 1.01 1.17 1.27 1.24 1.16 1.17 1.15 1.06 1.18 1.27 1.36 1.42 1.49 1.68 1.94 2.26 2.75 3.09 3.02 2.68 2.35 2.22
0.90 0.90 0.88 0.75 0.71 0.68 0.65 0.67 0.72 0.82 0.87 0.88 0.87 0.88 0.99 1.09 1.07 1.07 1.05 1.07 1.03 1.07 1.21 1.23 1.15 1.20 1.30 1.23 1.09 1.14 1.24 1.31 1.38 1.40 1.48 1.70 1.97 2.25 2.85 3.20 3.06 2.81 2.76
0.88 0.84 0.85 0.85 0.87 0.83 0.78 0.73 0.70 0.79 0.86 0.85 0.82 0.75 0.78 0.89 0.93 0.99 1.01 1.02 1.07 1.18 1.25 1.32 1.16 1.20 1.20 1.15 1.16 1.16 1.15 1.19 1.21 1.23 1.23 1.33 1.50 1.80 2.33 2.83 3.12 3.17 3.23
0.75 0.73 0.79 0.79 0.83 0.87 0.87 0.86 0.87 0.86 0.93 0.89 0.87 0.77 0.72 0.78 0.87 1.01 1.04 1.02 1.05 1.21 1.34 1.43 1.35 1.34 1.31 1.28 1.28 1.26 1.17 1.21 1.13 1.13 1.17 1.19 1.38 1.40 1.78 2.23 2.58 2.82 3.16
0.68 0.68 0.68 0.73 0.72 0.79 0.85 0.88 0.99 1.02 1.04 0.98 0.95 0.84 0.80 0.87 0.97 1.16 1.26 1.26 1.25 1.28 1.32 1.32 1.42 1.47 1.45 1.44 1.35 1.33 1.29 1.21 1.24 1.14 1.16 1.26 1.27 1.37 1.62 1.85 2.03 2.16 2.57
0.66 0.64 0.63 0.68 0.69 0.71 0.84 0.95 1.12 1.24 1.22 1.23 1.13 1.01 1.01 1.17 1.33 1.49 1.48 1.57 1.62 1.53 1.53 1.49 1.55 1.53 1.46 1.53 1.42 1.29 1.27 1.19 1.31 1.36 1.30 1.36 1.37 1.38 1.74 1.94 1.87 1.72 2.05
0.58 0.61 0.60 0.59 0.68 0.71 0.75 0.88 1.10 1.39 1.50 1.60 1.51 1.31 1.24 1.36 1.63 1.88 1.85 1.93 2.00 1.91 1.87 1.88 2.10 2.05 1.77 1.59 1.69 1.55 1.39 1.26 1.43 1.49 1.43 1.54 1.62 1.75 1.97 1.99 1.80 1.60 1.50
0.47 0.53 0.55 0.55 0.63 0.68 0.72 0.87 1.03 1.20 1.20 1.37 1.49 1.45 1.38 1.37 1.53 1.67 1.96 2.10 2.08 2.18 2.29 2.28 2.66 2.78 2.29 1.86 1.95 2.21 1.97 1.77 1.59 1.46 1.50 1.57 1.70 1.92 2.04 1.93 1.74 1.51 1.35
0.38 0.38 0.40 0.45 0.53 0.64 0.78 0.97 1.18 1.38 1.46 1.52 1.44 1.52 1.54 1.45 1.50 1.61 1.77 1.92 1.97 2.10 2.27 2.38 2.72 3.26 3.01 2.36 2.18 2.60 2.37 2.15 2.04 1.74 1.57 1.57 1.62 1.89 2.17 2.11 1.86 1.63 1.43
0.35 0.32 0.35 0.45 0.58 0.78 0.97 1.19 1.43 1.62 1.66 1.55 1.57 1.60 1.49 1.41 1.38 1.47 1.61 1.74 1.86 1.91 2.08 2.18 2.33 2.88 3.28 2.96 2.68 2.38 2.05 2.00 2.20 2.19 1.84 1.64 1.63 1.75 1.97 1.97 1.85 1.78 1.63
0.39 0.39 0.45 0.65 0.88 1.12 1.33 1.58 1.86 1.84 1.72 1.61 1.58 1.58 1.52 1.51 1.47 1.47 1.61 1.69 1.71 1.79 1.91 2.25 2.53 2.82 3.06 3.07 3.06 2.85 2.55 2.27 1.95 2.22 2.26 1.92 1.79 1.74 1.80 1.86 1.77 1.76 1.75
0.68 0.82 1.00 1.25 1.42 1.51 1.63 1.79 1.90 1.84 1.84 1.78 1.59 1.52 1.52 1.57 1.62 1.63 1.67 1.69 1.67 1.72 1.84 2.08 2.38 2.62 2.94 3.17 3.13 2.93 2.79 2.67 2.43 2.35 2.22 2.05 2.06 1.91 1.79 1.77 1.64 1.63 1.76

GEFSSE_prec_meanprecacc_282.txt.gz
Total_Precipitation_Accumulation
2.04 2.07 2.98 2.84 2.61 2.53 2.43 2.40 2.34 2.28 2.21 2.05 1.86 1.75 1.75 1.68 1.50 1.44 1.36 1.30 1.38 1.59 1.60 1.78 1.85 1.79 1.85 1.81 1.76 1.63 1.64 1.73 1.64 1.44 1.36 1.41 1.51 1.77 1.87 1.94 1.94 1.90 2.09
1.62 2.03 3.00 2.86 2.67 2.49 2.40 2.44 2.36 2.16 1.97 1.76 1.68 1.67 1.67 1.57 1.47 1.31 1.25 1.30 1.38 1.48 1.54 1.69 1.75 1.76 1.75 1.78 1.80 1.79 1.79 1.71 1.60 1.46 1.54 1.60 1.75 1.88 1.86 1.87 2.05 2.09 2.08
1.45 1.71 2.30 2.91 2.73 2.50 2.41 2.45 2.38 2.12 1.77 1.52 1.48 1.49 1.42 1.34 1.34 1.28 1.28 1.26 1.28 1.32 1.35 1.52 1.78 1.82 1.76 1.73 1.74 1.78 1.83 1.72 1.66 1.76 2.18 2.56 2.22 2.04 1.80 1.85 1.96 1.87 1.87
1.30 1.49 1.79 2.61 2.56 2.50 2.46 2.24 2.19 1.94 1.60 1.44 1.42 1.38 1.29 1.25 1.32 1.39 1.36 1.32 1.35 1.31 1.21 1.28 1.65 1.81 1.76 1.68 1.55 1.58 1.73 1.78 1.88 2.11 2.47 2.93 2.73 2.37 2.11 1.93 1.90 1.82 1.81
1.30 1.53 2.16 2.70 2.46 2.38 2.25 2.03 2.02 1.90 1.63 1.52 1.46 1.38 1.35 1.34 1.30 1.38 1.38 1.38 1.43 1.36 1.31 1.42 1.77 1.73 1.70 1.64 1.52 1.53 1.72 1.92 2.10 2.00 2.28 2.67 2.99 2.83 2.29 2.02 1.97 1.96 2.02
1.32 1.53 2.12 2.42 2.15 2.03 1.96 1.89 1.81 1.85 1.82 1.60 1.45 1.43 1.45 1.43 1.47 1.51 1.51 1.43 1.49 1.47 1.52 1.59 1.74 1.77 1.70 1.69 1.65 1.59 1.75 1.98 1.86 1.85 2.27 2.62 2.82 2.69 2.18 2.00 2.08 2.18 2.27
1.16 1.27 1.69 2.11 1.92 1.81 1.78 1.77 1.69 1.78 1.86 1.72 1.46 1.53 1.57 1.53 1.61 1.66 1.65 1.54 1.57 1.58 1.63 1.69 1.65 1.80 1.78 1.72 1.79 1.76 1.78 1.79 1.58 1.82 2.25 2.61 2.57 2.40 2.18 1.99 2.02 2.29 2.52
1.20 1.15 1.31 1.71 1.77 1.64 1.66 1.79 1.70 1.69 1.78 1.71 1.59 1.59 1.51 1.55 1.67 1.73 1.69 1.58 1.54 1.59 1.66 1.69 1.68 1.75 1.72 1.77 1.84 1.95 1.97 1.69 1.31 1.42 1.72 2.38 2.83 2.63 2.19 1.92 1.97 2.15 2.42
1.48 1.35 1.21 1.23 1.38 1.49 1.60 1.74 1.69 1.64 1.64 1.57 1.64 1.67 1.71 1.75 1.72 1.62 1.60 1.55 1.55 1.64 1.66 1.62 1.59 1.65 1.69 1.76 1.78 1.91 2.03 1.88 1.52 1.45 1.46 2.20 2.84 2.73 2.18 1.88 1.82 2.06 2.21
1.56 1.43 1.21 1.09 1.10 1.22 1.24 1.46 1.66 1.71 1.66 1.55 1.60 1.71 1.81 1.80 1.69 1.62 1.50 1.60 1.69 1.68 1.75 1.69 1.58 1.60 1.71 1.69 1.74 1.95 2.04 1.78 1.42 1.34 1.59 2.20 2.93 2.95 2.54 1.94 1.71 1.75 1.86
1.30 1.22 1.14 1.10 1.13 1.22 1.26 1.30 1.59 1.68 1.61 1.43 1.39 1.58 1.62 1.46 1.46 1.56 1.59 1.86 1.83 1.87 1.93 1.85 1.74 1.69 1.58 1.62 1.80 1.95 1.83 1.50 1.43 1.46 1.83 2.50 2.94 2.94 2.72 2.23 1.81 1.64 1.62
1.01 0.92 0.90 0.92 1.00 1.12 1.17 1.52 1.77 1.59 1.52 1.28 1.29 1.27 1.34 1.38 1.52 1.43 1.60 1.95 1.94 1.95 1.90 1.92 1.84 1.63 1.30 1.14 1.44 1.56 1.39 1.44 1.47 1.44 1.92 2.64 2.94 2.92 2.64 2.32 1.95 1.75 1.66
0.78 0.71 0.67 0.63 0.65 0.74 0.96 1.31 1.61 1.75 1.76 1.73 1.53 1.32 1.35 1.16 1.07 1.05 1.16 1.35 1.42 1.49 1.43 1.50 1.49 1.24 1.11 1.10 1.13 1.19 1.37 1.35 1.56 1.55 1.99 2.63 2.90 2.97 2.72 2.42 2.09 1.87 1.79
0.75 0.72 0.63 0.58 0.53 0.57 0.64 0.82 1.08 1.25 1.37 1.43 1.33 1.16 1.22 1.12 1.04 1.05 1.06 1.06 1.05 1.16 1.30 1.30 1.30 1.19 1.07 1.01 0.99 1.13 1.23 1.23 1.43 1.69 2.08 2.34 2.68 2.99 2.92 2.57 2.29 2.07 2.01
0.85 0.85 0.76 0.63 0.57 0.58 0.63 0.69 0.78 0.97 1.10 1.11 1.16 1.09 1.09 1.13 1.13 1.09 1.00 0.99 0.91 1.01 1.18 1.28 1.24 1.16 1.18 1.16 1.07 1.19 1.27 1.37 1.44 1.51 1.71 1.99 2.34 2.83 3.18 3.09 2.74 2.40 2.26
0.90 0.90 0.88 0.76 0.71 0.68 0.65 0.68 0.76 0.86 0.90 0.89 0.89 0.89 1.00 1.10 1.09 1.08 1.06 1.08 1.05 1.08 1.22 1.24 1.16 1.21 1.31 1.24 1.10 1.14 1.24 1.32 1.39 1.41 1.49 1.71 2.01 2.31 2.93 3.28 3.13 2.88 2.81
0.89 0.85 0.86 0.86 0.87 0.84 0.79 0.73 0.73 0.82 0.89 0.88 0.83 0.76 0.80 0.91 0.95 1.00 1.03 1.03 1.08 1.19 1.27 1.33 1.17 1.20 1.21 1.16 1.16 1.16 1.15 1.20 1.22 1.24 1.24 1.33 1.51 1.83 2.37 2.89 3.17 3.23 3.28
0.75 0.74 0.80 0.80 0.85 0.88 0.88 0.88 0.89 0.89 0.96 0.91 0.89 0.79 0.75 0.81 0.90 1.04 1.07 1.04 1.05 1.22 1.35 1.43 1.36 1.35 1.32 1.28 1.28 1.26 1.18 1.22 1.14 1.14 1.17 1.20 1.39 1.41 1.80 2.26 2.61 2.87 3.21
0.68 0.68 0.69 0.74 0.74 0.81 0.88 0.91 1.01 1.04 1.06 1.00 0.98 0.88 0.84 0.91 1.01 1.19 1.29 1.28 1.25 1.29 1.33 1.33 1.43 1.48 1.45 1.44 1.35 1.33 1.30 1.22 1.25 1.15 1.16 1.26 1.28 1.37 1.62 1.86 2.05 2.20 2.62
0.67 0.65 0.64 0.69 0.70 0.73 0.85 0.96 1.13 1.25 1.23 1.24 1.14 1.04 1.04 1.19 1.35 1.51 1.50 1.58 1.62 1.54 1.54 1.50 1.55 1.53 1.46 1.53 1.42 1.30 1.28 1.20 1.32 1.37 1.31 1.37 1.38 1.38 1.75 1.96 1.89 1.75 2.09
0.60 0.62 0.62 0.60 0.68 0.72 0.76 0.89 1.12 1.41 1.51 1.61 1.53 1.32 1.26 1.37 1.65 1.89 1.86 1.94 2.00 1.92 1.89 1.89 2.11 2.05 1.77 1.59 1.70 1.55 1.39 1.27 1.43 1.50 1.44 1.54 1.63 1.76 1.99 2.01 1.82 1.62 1.52
0.49 0.54 0.57 0.56 0.64 0.69 0.74 0.90 1.07 1.24 1.23 1.39 1.50 1.46 1.39 1.39 1.54 1.69 1.98 2.11 2.09 2.20 2.31 2.30 2.67 2.79 2.29 1.86 1.97 2.22 1.97 1.77 1.60 1.47 1.52 1.58 1.71 1.95 2.07 1.95 1.75 1.53 1.38
0.39 0.39 0.42 0.46 0.53 0.65 0.79 1.01 1.23 1.43 1.49 1.53 1.45 1.52 1.55 1.46 1.52 1.63 1.79 1.94 1.98 2.11 2.28 2.39 2.73 3.27 3.02 2.36 2.18 2.60 2.37 2.15 2.05 1.74 1.58 1.57 1.64 1.92 2.20 2.13 1.89 1.65 1.45
0.36 0.33 0.36 0.45 0.59 0.79 0.99 1.21 1.46 1.66 1.69 1.56 1.57 1.61 1.49 1.42 1.39 1.50 1.63 1.75 1.88 1.92 2.09 2.19 2.34 2.90 3.30 2.97 2.69 2.38 2.06 2.01 2.20 2.20 1.85 1.65 1.65 1.78 2.00 2.00 1.87 1.81 1.65
0.40 0.41 0.46 0.66 0.88 1.13 1.34 1.60 1.89 1.87 1.74 1.63 1.60 1.58 1.52 1.52 1.48 1.48 1.63 1.71 1.72 1.79 1.92 2.25 2.54 2.83 3.08 3.09 3.07 2.86 2.56 2.28 1.96 2.22 2.27 1.93 1.81 1.78 1.84 1.88 1.79 1.78 1.76
0.69 0.83 1.01 1.27 1.44 1.53 1.65 1.80 1.92 1.87 1.86 1.79 1.60 1.53 1.53 1.57 1.62 1.63 1.68 1.71 1.68 1.73 1.85 2.08 2.39 2.62 2.96 3.19 3.14 2.94 2.81 2.68 2.44 2.36 2.23 2.06 2.07 1.94 1.82 1.80 1.66 1.64 1.77

GEFSSE_prec_meanprecacc_288.txt.gz
Total_Precipitation_Accumulation
2.04 2.08 3.00 2.89 2.66 2.58 2.46 2.43 2.40 2.36 2.30 2.12 1.93 1.83 1.82 1.75 1.60 1.54 1.46 1.43 1.53 1.71 1.77 1.88 1.92 1.87 1.93 1.91 1.85 1.73 1.71 1.80 1.70 1.49 1.44 1.49 1.57 1.83 1.93 1.98 1.98 1.97 2.17
1.63 2.04 3.01 2.89 2.71 2.53 2.42 2.47 2.39 2.21 2.03 1.81 1.73 1.72 1.73 1.64 1.54 1.40 1.35 1.42 1.51 1.61 1.65 1.78 1.84 1.84 1.83 1.85 1.87 1.86 1.85 1.75 1.64 1.51 1.64 1.72 1.86 1.97 1.93 1.93 2.11 2.16 2.14
1.46 1.72 2.31 2.93 2.76 2.52 2.44 2.48 2.42 2.17 1.83 1.58 1.54 1.56 1.50 1.43 1.42 1.38 1.40 1.39 1.42 1.43 1.44 1.62 1.90 1.93 1.86 1.82 1.82 1.84 1.86 1.74 1.69 1.80 2.24 2.66 2.32 2.12 1.87 1.91 2.02 1.94 1.92
1.31 1.49 1.80 2.63 2.59 2.52 2.48 2.28 2.24 1.99 1.65 1.49 1.46 1.42 1.34 1.33 1.38 1.48 1.49 1.47 1.50 1.41 1.30 1.37 1.75 1.91 1.87 1.79 1.63 1.65 1.78 1.81 1.91 2.14 2.53 3.02 2.82 2.45 2.19 2.01 1.97 1.89 1.87
1.30 1.53 2.17 2.71 2.48 2.40 2.27 2.07 2.07 1.95 1.69 1.57 1.51 1.43 1.40 1.39 1.36 1.47 1.51 1.53 1.58 1.47 1.41 1.52 1.92 1.86 1.81 1.74 1.60 1.60 1.77 1.96 2.14 2.04 2.32 2.74 3.08 2.93 2.39 2.14 2.07 2.04 2.08
1.33 1.53 2.13 2.43 2.17 2.05 1.99 1.93 1.85 1.90 1.88 1.66 1.50 1.47 1.49 1.48 1.53 1.60 1.63 1.56 1.63 1.59 1.62 1.75 1.96 1.94 1.85 1.80 1.74 1.66 1.80 2.03 1.90 1.88 2.30 2.67 2.89 2.77 2.28 2.10 2.16 2.26 2.34
1.16 1.27 1.70 2.12 1.93 1.83 1.82 1.82 1.74 1.82 1.91 1.78 1.51 1.58 1.61 1.58 1.65 1.75 1.75 1.66 1.70 1.71 1.77 1.95 1.98 2.03 1.95 1.83 1.88 1.84 1.85 1.83 1.60 1.85 2.29 2.66 2.64 2.47 2.26 2.07 2.08 2.36 2.61
1.20 1.15 1.32 1.72 1.78 1.66 1.69 1.84 1.74 1.74 1.83 1.76 1.63 1.63 1.55 1.59 1.71 1.81 1.81 1.70 1.64 1.71 1.83 2.03 2.02 2.02 1.91 1.88 1.94 2.03 2.03 1.73 1.34 1.46 1.76 2.43 2.90 2.68 2.25 1.98 2.03 2.23 2.51
1.48 1.35 1.21 1.23 1.39 1.51 1.62 1.76 1.72 1.68 1.68 1.61 1.67 1.69 1.74 1.79 1.77 1.70 1.71 1.66 1.66 1.74 1.77 1.87 1.92 1.92 1.88 1.89 1.88 1.99 2.08 1.92 1.55 1.48 1.48 2.24 2.88 2.78 2.24 1.95 1.91 2.13 2.28
1.56 1.43 1.21 1.09 1.10 1.23 1.26 1.48 1.69 1.75 1.70 1.58 1.63 1.74 1.84 1.84 1.76 1.70 1.60 1.70 1.80 1.80 1.88 1.87 1.82 1.83 1.87 1.81 1.81 2.00 2.07 1.81 1.45 1.38 1.64 2.24 2.98 3.01 2.59 2.01 1.79 1.83 1.92
1.30 1.22 1.14 1.10 1.13 1.23 1.26 1.31 1.61 1.69 1.62 1.44 1.41 1.61 1.64 1.49 1.53 1.68 1.74 2.03 2.00 2.01 2.04 1.95 1.87 1.84 1.70 1.69 1.84 1.98 1.86 1.53 1.46 1.51 1.90 2.58 3.02 3.02 2.76 2.28 1.86 1.67 1.65
1.02 0.92 0.90 0.92 1.00 1.13 1.17 1.53 1.78 1.60 1.53 1.29 1.31 1.29 1.37 1.42 1.62 1.58 1.74 2.10 2.04 2.02 1.97 1.97 1.89 1.67 1.33 1.17 1.46 1.58 1.42 1.47 1.51 1.48 1.98 2.71 3.03 3.00 2.69 2.36 1.98 1.77 1.69
0.79 0.72 0.67 0.63 0.65 0.74 0.97 1.32 1.62 1.77 1.77 1.75 1.55 1.34 1.37 1.18 1.13 1.13 1.21 1.38 1.44 1.51 1.46 1.53 1.52 1.26 1.13 1.12 1.16 1.22 1.40 1.38 1.60 1.61 2.06 2.71 2.99 3.05 2.78 2.45 2.12 1.90 1.82
0.76 0.72 0.63 0.58 0.54 0.58 0.64 0.83 1.09 1.27 1.38 1.45 1.35 1.17 1.24 1.13 1.05 1.06 1.07 1.07 1.07 1.17 1.31 1.31 1.31 1.20 1.09 1.03 1.02 1.15 1.26 1.27 1.47 1.77 2.19 2.44 2.78 3.07 2.96 2.60 2.32 2.10 2.04
0.85 0.86 0.76 0.63 0.57 0.58 0.63 0.69 0.79 0.98 1.12 1.13 1.18 1.10 1.10 1.15 1.15 1.11 1.01 1.01 0.93 1.03 1.18 1.28 1.25 1.17 1.19 1.17 1.08 1.20 1.29 1.39 1.46 1.56 1.81 2.10 2.42 2.90 3.24 3.13 2.77 2.43 2.30
0.91 0.90 0.88 0.76 0.72 0.69 0.66 0.69 0.77 0.87 0.93 0.91 0.90 0.91 1.02 1.12 1.12 1.11 1.08 1.10 1.07 1.10 1.23 1.25 1.16 1.22 1.31 1.25 1.11 1.15 1.26 1.33 1.41 1.43 1.55 1.81 2.09 2.38 3.02 3.35 3.18 2.93 2.86
0.89 0.85 0.87 0.86 0.87 0.84 0.79 0.74 0.75 0.85 0.92 0.91 0.86 0.78 0.82 0.94 0.98 1.03 1.06 1.05 1.10 1.21 1.28 1.34 1.17 1.21 1.22 1.17 1.18 1.18 1.16 1.21 1.24 1.28 1.29 1.40 1.58 1.87 2.45 3.00 3.26 3.29 3.35
0.76 0.75 0.82 0.82 0.85 0.88 0.89 0.89 0.91 0.92 1.00 0.95 0.92 0.81 0.77 0.84 0.93 1.07 1.09 1.05 1.07 1.23 1.36 1.44 1.36 1.36 1.34 1.30 1.29 1.27 1.19 1.24 1.16 1.17 1.21 1.24 1.45 1.45 1.84 2.32 2.67 2.92 3.27
0.70 0.70 0.71 0.76 0.76 0.82 0.88 0.91 1.02 1.05 1.08 1.02 1.01 0.90 0.86 0.93 1.04 1.22 1.31 1.29 1.26 1.30 1.34 1.34 1.44 1.49 1.47 1.46 1.36 1.34 1.31 1.24 1.27 1.16 1.19 1.30 1.31 1.40 1.64 1.87 2.07 2.22 2.65
0.68 0.66 0.65 0.70 0.72 0.74 0.85 0.96 1.14 1.25 1.23 1.24 1.15 1.06 1.06 1.21 1.37 1.53 1.51 1.59 1.63 1.55 1.56 1.52 1.57 1.54 1.47 1.54 1.42 1.30 1.28 1.21 1.33 1.39 1.33 1.39 1.39 1.39 1.76 1.97 1.92 1.77 2.12
0.62 0.64 0.63 0.60 0.69 0.72 0.76 0.90 1.13 1.41 1.52 1.62 1.54 1.34 1.27 1.39 1.67 1.91 1.87 1.95 2.02 1.94 1.91 1.91 2.14 2.07 1.78 1.60 1.71 1.56 1.40 1.27 1.44 1.51 1.45 1.55 1.64 1.77 2.00 2.02 1.83 1.64 1.55
0.49 0.55 0.58 0.57 0.64 0.70 0.74 0.91 1.09 1.25 1.25 1.41 1.53 1.49 1.42 1.41 1.56 1.71 2.00 2.13 2.11 2.21 2.33 2.32 2.69 2.81 2.31 1.87 1.98 2.24 1.99 1.78 1.60 1.48 1.53 1.59 1.72 1.95 2.07 1.96 1.76 1.55 1.41
0.40 0.39 0.42 0.47 0.54 0.66 0.80 1.02 1.24 1.45 1.52 1.56 1.47 1.55 1.57 1.48 1.52 1.65 1.81 1.96 1.99 2.13 2.31 2.43 2.75 3.30 3.04 2.38 2.20 2.62 2.40 2.18 2.06 1.75 1.58 1.58 1.65 1.92 2.21 2.14 1.90 1.67 1.48
0.37 0.34 0.36 0.46 0.60 0.80 0.99 1.22 1.47 1.68 1.72 1.59 1.59 1.62 1.51 1.43 1.40 1.52 1.65 1.77 1.89 1.94 2.11 2.21 2.35 2.93 3.33 2.99 2.70 2.39 2.07 2.03 2.22 2.22 1.86 1.66 1.65 1.79 2.00 2.00 1.88 1.83 1.68
0.42 0.42 0.47 0.66 0.88 1.14 1.35 1.61 1.90 1.88 1.76 1.64 1.61 1.60 1.54 1.53 1.49 1.49 1.64 1.72 1.73 1.81 1.94 2.27 2.55 2.85 3.09 3.11 3.09 2.87 2.57 2.30 1.97 2.24 2.30 1.95 1.82 1.79 1.84 1.90 1.80 1.79 1.78
0.71 0.85 1.03 1.28 1.44 1.53 1.65 1.82 1.93 1.88 1.87 1.80 1.62 1.54 1.54 1.58 1.63 1.64 1.69 1.72 1.70 1.74 1.86 2.10 2.41 2.64 2.97 3.21 3.16 2.96 2.82 2.69 2.44 2.37 2.24 2.08 2.10 1.96 1.84 1.81 1.67 1.66 1.79

GEFSSE_prec_meanprecacc_294.txt.gz
Total_Precipitation_Accumulation
2.06 2.10 3.02 2.92 2.70 2.61 2.50 2.48 2.44 2.41 2.34 2.17 1.99 1.90 1.88 1.82 1.67 1.61 1.52 1.52 1.61 1.81 1.87 1.94 1.98 1.93 1.99 1.96 1.91 1.81 1.81 1.88 1.77 1.55 1.48 1.54 1.65 1.90 1.99 2.06 2.06 2.04 2.24
1.64 2.05 3.03 2.91 2.73 2.56 2.45 2.50 2.42 2.23 2.07 1.85 1.78 1.78 1.79 1.70 1.62 1.49 1.44 1.54 1.63 1.75 1.74 1.83 1.88 1.89 1.88 1.92 1.93 1.94 1.93 1.81 1.69 1.58 1.71 1.78 1.93 2.04 2.00 2.01 2.19 2.23 2.23
1.47 1.73 2.32 2.94 2.77 2.54 2.47 2.52 2.45 2.20 1.87 1.62 1.58 1.60 1.56 1.50 1.52 1.49 1.52 1.54 1.60 1.60 1.53 1.71 1.97 1.98 1.91 1.88 1.88 1.91 1.92 1.79 1.74 1.88 2.37 2.76 2.40 2.21 1.95 1.98 2.09 2.00 2.00
1.32 1.50 1.80 2.64 2.60 2.53 2.50 2.31 2.27 2.02 1.70 1.53 1.49 1.47 1.41 1.40 1.49 1.58 1.60 1.60 1.65 1.52 1.37 1.44 1.82 1.99 1.95 1.86 1.69 1.69 1.82 1.86 1.98 2.24 2.66 3.17 2.94 2.56 2.30 2.13 2.08 1.98 1.95
1.32 1.54 2.17 2.71 2.48 2.41 2.28 2.10 2.11 1.98 1.72 1.60 1.54 1.46 1.46 1.47 1.44 1.55 1.61 1.62 1.65 1.55 1.49 1.61 2.00 1.93 1.88 1.80 1.65 1.64 1.81 2.02 2.22 2.13 2.42 2.85 3.18 3.05 2.52 2.26 2.19 2.14 2.17
1.34 1.53 2.13 2.44 2.18 2.06 2.01 1.96 1.88 1.93 1.91 1.68 1.52 1.50 1.56 1.57 1.62 1.70 1.73 1.65 1.70 1.67 1.72 1.83 2.05 2.01 1.93 1.88 1.80 1.71 1.86 2.09 1.97 1.94 2.39 2.75 2.98 2.88 2.38 2.20 2.26 2.35 2.42
1.16 1.27 1.70 2.13 1.94 1.84 1.84 1.84 1.76 1.85 1.93 1.79 1.53 1.61 1.67 1.67 1.77 1.87 1.87 1.77 1.79 1.80 1.88 2.07 2.10 2.12 2.03 1.91 1.95 1.91 1.92 1.90 1.66 1.90 2.37 2.74 2.73 2.54 2.32 2.14 2.16 2.43 2.68
1.20 1.15 1.32 1.72 1.79 1.67 1.70 1.85 1.76 1.75 1.85 1.79 1.65 1.66 1.59 1.65 1.82 1.94 1.93 1.81 1.75 1.81 1.98 2.24 2.26 2.18 2.00 1.97 2.04 2.15 2.13 1.79 1.38 1.51 1.83 2.51 2.97 2.74 2.31 2.03 2.08 2.29 2.57
1.49 1.35 1.21 1.23 1.40 1.51 1.63 1.77 1.73 1.69 1.70 1.63 1.69 1.71 1.77 1.83 1.84 1.79 1.82 1.79 1.77 1.84 1.89 2.13 2.15 2.08 2.00 2.00 2.01 2.11 2.16 1.96 1.58 1.51 1.52 2.29 2.94 2.83 2.29 2.00 1.96 2.18 2.33
1.56 1.43 1.21 1.09 1.10 1.24 1.27 1.48 1.70 1.77 1.71 1.59 1.65 1.76 1.86 1.87 1.82 1.79 1.70 1.82 1.92 1.90 2.03 2.25 2.17 2.03 2.00 1.91 1.90 2.08 2.13 1.85 1.49 1.42 1.69 2.29 3.04 3.07 2.65 2.07 1.84 1.89 1.97
1.30 1.22 1.14 1.10 1.13 1.24 1.27 1.32 1.63 1.71 1.64 1.46 1.42 1.63 1.67 1.54 1.59 1.80 1.89 2.17 2.11 2.11 2.20 2.32 2.29 2.08 1.83 1.78 1.93 2.04 1.89 1.56 1.49 1.54 1.94 2.64 3.08 3.07 2.81 2.33 1.90 1.72 1.69
1.02 0.93 0.90 0.92 1.01 1.13 1.18 1.54 1.81 1.63 1.55 1.32 1.33 1.31 1.40 1.47 1.68 1.65 1.86 2.23 2.14 2.10 2.07 2.19 2.22 1.92 1.48 1.26 1.54 1.64 1.45 1.52 1.54 1.52 2.03 2.77 3.09 3.04 2.73 2.39 2.03 1.81 1.72
0.79 0.72 0.67 0.63 0.65 0.75 0.98 1.34 1.64 1.79 1.80 1.78 1.58 1.38 1.42 1.21 1.16 1.15 1.24 1.41 1.48 1.55 1.51 1.61 1.68 1.44 1.25 1.22 1.25 1.30 1.44 1.42 1.63 1.64 2.11 2.76 3.04 3.10 2.81 2.48 2.16 1.93 1.84
0.76 0.72 0.63 0.58 0.54 0.58 0.65 0.85 1.10 1.29 1.41 1.49 1.39 1.20 1.27 1.17 1.08 1.08 1.10 1.09 1.09 1.20 1.34 1.34 1.36 1.26 1.15 1.09 1.08 1.20 1.28 1.30 1.51 1.82 2.25 2.48 2.82 3.12 3.00 2.63 2.35 2.13 2.06
0.86 0.86 0.76 0.63 0.57 0.59 0.64 0.70 0.80 1.00 1.13 1.15 1.22 1.14 1.12 1.17 1.18 1.14 1.03 1.03 0.95 1.05 1.21 1.31 1.27 1.19 1.21 1.18 1.10 1.22 1.31 1.43 1.52 1.62 1.86 2.15 2.47 2.95 3.28 3.16 2.80 2.46 2.33
0.92 0.91 0.89 0.76 0.72 0.69 0.67 0.69 0.78 0.88 0.94 0.93 0.93 0.93 1.03 1.15 1.14 1.14 1.12 1.15 1.10 1.12 1.24 1.27 1.19 1.23 1.33 1.27 1.13 1.16 1.27 1.36 1.46 1.48 1.60 1.85 2.13 2.41 3.04 3.38 3.21 2.96 2.90
0.90 0.86 0.87 0.87 0.88 0.84 0.80 0.75 0.76 0.86 0.93 0.92 0.88 0.80 0.84 0.95 0.99 1.06 1.10 1.09 1.12 1.23 1.30 1.36 1.20 1.23 1.24 1.19 1.19 1.19 1.18 1.22 1.26 1.32 1.33 1.46 1.63 1.91 2.49 3.04 3.29 3.32 3.38
0.77 0.76 0.83 0.84 0.86 0.89 0.89 0.90 0.92 0.93 1.02 0.96 0.94 0.84 0.79 0.85 0.94 1.09 1.13 1.08 1.08 1.24 1.38 1.46 1.39 1.39 1.36 1.32 1.31 1.29 1.20 1.25 1.17 1.20 1.24 1.29 1.51 1.50 1.89 2.38 2.72 2.95 3.29
0.70 0.71 0.72 0.77 0.77 0.83 0.89 0.92 1.03 1.07 1.10 1.06 1.04 0.93 0.89 0.96 1.05 1.24 1.34 1.32 1.28 1.32 1.35 1.35 1.47 1.52 1.50 1.49 1.39 1.35 1.33 1.26 1.30 1.18 1.21 1.32 1.34 1.45 1.68 1.90 2.11 2.28 2.68
0.68 0.67 0.66 0.71 0.73 0.75 0.86 0.97 1.15 1.27 1.25 1.26 1.17 1.09 1.09 1.23 1.39 1.54 1.52 1.60 1.65 1.57 1.57 1.54 1.59 1.58 1.50 1.58 1.45 1.32 1.30 1.23 1.36 1.42 1.35 1.41 1.42 1.42 1.79 1.99 1.94 1.81 2.16
0.62 0.64 0.63 0.61 0.69 0.73 0.78 0.92 1.15 1.43 1.53 1.63 1.55 1.35 1.28 1.40 1.69 1.93 1.89 1.97 2.04 1.96 1.92 1.93 2.16 2.09 1.80 1.62 1.73 1.58 1.41 1.29 1.46 1.53 1.48 1.58 1.67 1.80 2.02 2.03 1.85 1.68 1.60
0.50 0.55 0.58 0.57 0.65 0.71 0.75 0.92 1.10 1.26 1.26 1.43 1.55 1.51 1.44 1.41 1.56 1.73 2.03 2.17 2.14 2.26 2.36 2.35 2.71 2.84 2.33 1.89 2.01 2.28 2.01 1.80 1.61 1.49 1.55 1.61 1.75 1.99 2.10 1.97 1.79 1.58 1.46
0.40 0.39 0.42 0.47 0.54 0.66 0.81 1.02 1.25 1.47 1.54 1.57 1.48 1.56 1.57 1.48 1.54 1.66 1.83 1.98 2.02 2.16 2.35 2.46 2.78 3.33 3.08 2.40 2.22 2.66 2.45 2.22 2.09 1.77 1.61 1.61 1.68 1.95 2.23 2.17 1.93 1.70 1.51
0.37 0.34 0.36 0.46 0.60 0.80 1.00 1.23 1.48 1.69 1.73 1.60 1.59 1.63 1.52 1.43 1.42 1.54 1.67 1.78 1.90 1.97 2.14 2.23 2.37 2.96 3.37 3.03 2.72 2.41 2.10 2.06 2.26 2.26 1.90 1.70 1.68 1.81 2.02 2.02 1.91 1.86 1.71
0.42 0.42 0.47 0.66 0.88 1.14 1.36 1.63 1.92 1.89 1.77 1.66 1.62 1.61 1.55 1.53 1.50 1.51 1.67 1.73 1.74 1.83 1.97 2.30 2.57 2.88 3.12 3.14 3.12 2.89 2.59 2.32 1.99 2.28 2.34 2.00 1.85 1.81 1.86 1.91 1.82 1.82 1.81
0.71 0.85 1.03 1.28 1.44 1.54 1.66 1.83 1.95 1.90 1.88 1.82 1.64 1.56 1.55 1.59 1.64 1.66 1.72 1.74 1.71 1.75 1.87 2.12 2.44 2.68 3.00 3.24 3.19 2.98 2.85 2.72 2.47 2.40 2.28 2.12 2.14 1.99 1.86 1.82 1.68 1.67 1.81

GEFSSE_prec_meanprecacc_300.txt.gz
Total_Precipitation_Accumulation
2.10 2.14 3.09 2.98 2.74 2.64 2.52 2.50 2.46 2.43 2.37 2.20 2.03 1.94 1.91 1.86 1.72 1.65 1.56 1.56 1.65 1.85 1.91 1.99 2.03 1.97 2.02 2.00 1.96 1.88 1.87 1.94 1.84 1.63 1.56 1.61 1.72 1.97 2.07 2.14 2.12 2.09 2.31
1.66 2.08 3.06 2.93 2.75 2.58 2.47 2.51 2.43 2.25 2.09 1.87 1.80 1.81 1.83 1.75 1.68 1.54 1.50 1.60 1.67 1.79 1.79 1.88 1.92 1.92 1.92 1.96 1.97 1.98 1.97 1.87 1.78 1.67 1.81 1.86 2.00 2.11 2.08 2.07 2.23 2.27 2.29
1.48 1.75 2.34 2.96 2.79 2.55 2.48 2.53 2.46 2.21 1.88 1.64 1.60 1.64 1.60 1.55 1.58 1.57 1.59 1.60 1.67 1.65 1.57 1.74 2.00 2.02 1.95 1.93 1.93 1.96 1.98 1.87 1.83 1.97 2.45 2.80 2.46 2.30 2.04 2.05 2.14 2.04 2.06
1.33 1.51 1.81 2.65 2.61 2.54 2.51 2.33 2.28 2.03 1.71 1.55 1.52 1.50 1.46 1.46 1.59 1.72 1.72 1.73 1.76 1.57 1.41 1.49 1.86 2.02 1.98 1.89 1.72 1.74 1.89 1.96 2.09 2.31 2.69 3.19 3.00 2.65 2.40 2.24 2.19 2.08 2.02
1.33 1.55 2.18 2.73 2.49 2.42 2.30 2.12 2.12 1.99 1.73 1.62 1.56 1.51 1.52 1.53 1.55 1.70 1.80 1.82 1.77 1.61 1.55 1.67 2.04 1.98 1.91 1.83 1.69 1.69 1.86 2.09 2.29 2.16 2.44 2.89 3.25 3.15 2.60 2.35 2.29 2.25 2.27
1.34 1.54 2.14 2.45 2.19 2.07 2.02 1.97 1.89 1.95 1.92 1.69 1.53 1.56 1.64 1.64 1.69 1.80 1.87 1.77 1.78 1.73 1.78 1.90 2.10 2.06 1.98 1.93 1.86 1.74 1.89 2.12 2.00 1.98 2.42 2.80 3.04 2.97 2.46 2.28 2.35 2.44 2.51
1.16 1.27 1.70 2.14 1.95 1.85 1.85 1.85 1.77 1.86 1.95 1.80 1.55 1.65 1.75 1.75 1.83 1.95 1.95 1.84 1.85 1.85 1.93 2.14 2.16 2.17 2.09 1.98 2.01 1.94 1.94 1.92 1.70 1.98 2.43 2.80 2.79 2.61 2.39 2.21 2.22 2.49 2.73
1.20 1.15 1.32 1.73 1.80 1.68 1.71 1.86 1.77 1.77 1.87 1.81 1.68 1.69 1.65 1.73 1.91 2.03 2.01 1.87 1.81 1.87 2.09 2.44 2.40 2.27 2.08 2.03 2.09 2.20 2.16 1.82 1.42 1.57 1.89 2.57 3.05 2.81 2.37 2.09 2.14 2.34 2.60
1.49 1.35 1.22 1.25 1.41 1.53 1.65 1.79 1.75 1.71 1.72 1.65 1.71 1.74 1.80 1.88 1.91 1.89 1.90 1.86 1.85 1.90 1.99 2.27 2.26 2.17 2.09 2.09 2.09 2.18 2.21 2.00 1.60 1.55 1.57 2.34 3.00 2.90 2.35 2.05 1.99 2.22 2.37
1.56 1.43 1.21 1.10 1.11 1.25 1.28 1.50 1.73 1.79 1.73 1.61 1.67 1.78 1.88 1.90 1.87 1.86 1.78 1.92 2.01 1.98 2.11 2.33 2.25 2.11 2.09 2.01 1.99 2.15 2.18 1.88 1.49 1.43 1.71 2.33 3.10 3.13 2.70 2.11 1.88 1.93 2.01
1.30 1.23 1.15 1.10 1.14 1.25 1.27 1.33 1.65 1.73 1.65 1.47 1.44 1.65 1.68 1.55 1.62 1.85 1.95 2.24 2.20 2.20 2.30 2.43 2.40 2.17 1.92 1.87 2.01 2.10 1.93 1.58 1.50 1.55 1.96 2.67 3.12 3.11 2.85 2.36 1.93 1.75 1.72
1.03 0.93 0.91 0.93 1.01 1.13 1.18 1.54 1.82 1.63 1.56 1.33 1.34 1.32 1.41 1.47 1.69 1.68 1.92 2.31 2.23 2.20 2.19 2.35 2.38 2.00 1.53 1.30 1.58 1.69 1.49 1.53 1.55 1.52 2.05 2.81 3.14 3.08 2.76 2.42 2.06 1.84 1.74
0.80 0.73 0.68 0.64 0.66 0.75 0.99 1.34 1.65 1.80 1.80 1.79 1.59 1.40 1.43 1.22 1.16 1.17 1.27 1.45 1.52 1.60 1.57 1.71 1.87 1.58 1.32 1.25 1.29 1.36 1.49 1.45 1.65 1.65 2.13 2.81 3.10 3.15 2.85 2.51 2.18 1.96 1.87
0.77 0.73 0.65 0.60 0.55 0.59 0.67 0.86 1.11 1.30 1.42 1.49 1.40 1.22 1.29 1.19 1.09 1.09 1.11 1.11 1.12 1.23 1.37 1.39 1.53 1.50 1.30 1.20 1.16 1.28 1.34 1.34 1.54 1.84 2.29 2.54 2.89 3.18 3.03 2.66 2.38 2.16 2.10
0.88 0.88 0.78 0.66 0.60 0.61 0.67 0.73 0.82 1.01 1.14 1.17 1.23 1.16 1.13 1.19 1.21 1.15 1.04 1.04 0.97 1.07 1.23 1.35 1.39 1.40 1.42 1.35 1.20 1.31 1.36 1.46 1.54 1.64 1.90 2.21 2.53 3.01 3.33 3.20 2.83 2.50 2.38
0.99 0.94 0.90 0.78 0.75 0.72 0.70 0.72 0.80 0.90 0.96 0.97 0.96 0.96 1.05 1.17 1.17 1.17 1.13 1.17 1.11 1.14 1.27 1.30 1.24 1.32 1.44 1.36 1.19 1.22 1.29 1.38 1.48 1.49 1.61 1.89 2.17 2.45 3.08 3.42 3.27 3.05 2.97
0.95 0.88 0.89 0.88 0.89 0.87 0.83 0.77 0.78 0.89 0.96 0.95 0.92 0.84 0.87 0.98 1.03 1.09 1.13 1.12 1.15 1.26 1.33 1.40 1.22 1.27 1.28 1.23 1.23 1.23 1.20 1.24 1.29 1.33 1.34 1.48 1.65 1.94 2.51 3.07 3.33 3.39 3.45
0.78 0.77 0.85 0.86 0.88 0.91 0.92 0.92 0.94 0.95 1.04 0.98 0.97 0.87 0.82 0.89 0.98 1.13 1.16 1.11 1.11 1.28 1.41 1.49 1.42 1.43 1.41 1.35 1.34 1.31 1.22 1.27 1.20 1.22 1.26 1.30 1.54 1.53 1.91 2.40 2.75 2.99 3.33
0.71 0.71 0.73 0.79 0.78 0.84 0.91 0.95 1.06 1.09 1.11 1.07 1.06 0.95 0.91 0.98 1.08 1.26 1.37 1.35 1.31 1.35 1.38 1.38 1.49 1.55 1.53 1.52 1.42 1.38 1.34 1.28 1.31 1.20 1.23 1.33 1.35 1.46 1.68 1.91 2.12 2.29 2.70
0.69 0.67 0.66 0.72 0.74 0.76 0.88 0.99 1.18 1.30 1.28 1.29 1.20 1.11 1.12 1.27 1.41 1.55 1.55 1.63 1.67 1.59 1.59 1.56 1.61 1.60 1.53 1.61 1.47 1.34 1.32 1.25 1.37 1.44 1.37 1.42 1.44 1.43 1.79 2.00 1.95 1.82 2.18
0.63 0.65 0.63 0.61 0.70 0.74 0.79 0.93 1.16 1.44 1.55 1.65 1.57 1.36 1.29 1.42 1.70 1.94 1.90 1.99 2.05 1.97 1.94 1.93 2.17 2.12 1.82 1.64 1.74 1.59 1.43 1.30 1.47 1.55 1.49 1.59 1.68 1.80 2.02 2.04 1.86 1.69 1.63
0.51 0.56 0.58 0.57 0.65 0.71 0.76 0.93 1.11 1.27 1.27 1.44 1.57 1.53 1.44 1.42 1.57 1.75 2.05 2.19 2.16 2.28 2.38 2.36 2.72 2.85 2.35 1.90 2.02 2.29 2.02 1.82 1.63 1.50 1.55 1.62 1.77 2.00 2.11 1.98 1.80 1.60 1.48
0.42 0.40 0.43 0.48 0.55 0.66 0.81 1.02 1.26 1.48 1.55 1.58 1.50 1.58 1.58 1.49 1.54 1.67 1.84 1.99 2.03 2.17 2.36 2.47 2.79 3.34 3.09 2.41 2.23 2.67 2.45 2.22 2.09 1.78 1.62 1.63 1.70 1.97 2.25 2.18 1.95 1.72 1.54
0.38 0.35 0.38 0.47 0.60 0.81 1.00 1.23 1.49 1.70 1.75 1.61 1.60 1.64 1.53 1.44 1.43 1.55 1.68 1.80 1.92 1.98 2.15 2.23 2.38 2.97 3.37 3.03 2.73 2.42 2.11 2.08 2.27 2.27 1.91 1.71 1.70 1.83 2.05 2.05 1.93 1.87 1.73
0.44 0.45 0.49 0.67 0.89 1.15 1.36 1.63 1.92 1.90 1.78 1.67 1.63 1.62 1.56 1.54 1.50 1.52 1.68 1.74 1.76 1.84 1.98 2.30 2.58 2.89 3.13 3.15 3.13 2.90 2.60 2.34 2.01 2.29 2.35 2.01 1.87 1.83 1.88 1.93 1.83 1.83 1.83
0.73 0.88 1.06 1.30 1.46 1.54 1.67 1.83 1.95 1.90 1.89 1.83 1.65 1.56 1.56 1.60 1.65 1.67 1.72 1.75 1.72 1.76 1.89 2.13 2.45 2.69 3.01 3.25 3.21 3.00 2.86 2.74 2.49 2.43 2.30 2.14 2.15 2.01 1.88 1.84 1.70 1.68 1.82

GEFSSE_prec_meanprecacc_306.txt.gz
Total_Precipitation_Accumulation
2.11 2.15 3.14 3.04 2.79 2.70 2.59 2.57 2.53 2.51 2.44 2.26 2.08 1.99 1.96 1.91 1.79 1.74 1.65 1.65 1.72 1.91 1.97 2.04 2.07 2.02 2.07 2.06 2.02 1.94 1.92 2.02 1.96 1.72 1.65 1.71 1.83 2.07 2.16 2.21 2.17 2.13 2.40
1.66 2.09 3.09 2.96 2.78 2.62 2.51 2.55 2.46 2.29 2.14 1.93 1.85 1.87 1.89 1.81 1.76 1.63 1.57 1.67 1.74 1.84 1.85 1.94 1.97 1.96 1.96 2.00 2.02 2.05 2.02 1.93 1.85 1.75 1.88 1.94 2.09 2.19 2.14 2.13 2.29 2.32 2.40
1.48 1.75 2.35 2.98 2.82 2.59 2.51 2.56 2.48 2.24 1.94 1.72 1.67 1.70 1.68 1.62 1.67 1.68 1.66 1.66 1.73 1.71 1.63 1.81 2.05 2.06 2.00 1.98 2.00 2.02 2.04 1.94 1.92 2.06 2.52 2.85 2.53 2.37 2.10 2.12 2.22 2.12 2.15
1.33 1.52 1.83 2.69 2.64 2.57 2.55 2.36 2.31 2.05 1.74 1.59 1.57 1.56 1.52 1.58 1.77 1.89 1.83 1.79 1.82 1.63 1.48 1.55 1.92 2.06 2.03 1.94 1.78 1.79 1.94 2.03 2.18 2.42 2.76 3.24 3.08 2.75 2.48 2.33 2.27 2.18 2.11
1.33 1.55 2.20 2.76 2.52 2.46 2.34 2.16 2.14 2.01 1.76 1.66 1.61 1.56 1.58 1.74 1.82 1.86 1.94 1.91 1.84 1.69 1.62 1.74 2.10 2.03 1.97 1.88 1.75 1.74 1.92 2.17 2.38 2.24 2.50 2.93 3.33 3.28 2.70 2.44 2.38 2.36 2.38
1.34 1.54 2.16 2.48 2.22 2.10 2.06 2.01 1.92 1.97 1.95 1.74 1.59 1.59 1.73 1.90 2.01 2.06 2.08 1.90 1.86 1.79 1.84 1.96 2.16 2.13 2.05 2.00 1.91 1.78 1.93 2.21 2.11 2.03 2.45 2.83 3.10 3.09 2.55 2.37 2.43 2.54 2.62
1.17 1.28 1.72 2.17 1.97 1.87 1.88 1.89 1.80 1.89 1.98 1.85 1.61 1.70 1.84 1.92 2.08 2.18 2.10 1.92 1.92 1.91 1.99 2.21 2.23 2.26 2.17 2.04 2.06 1.98 1.97 2.00 1.78 2.00 2.44 2.83 2.86 2.70 2.47 2.30 2.30 2.57 2.82
1.21 1.16 1.34 1.77 1.83 1.70 1.74 1.90 1.81 1.80 1.91 1.85 1.73 1.75 1.73 1.85 2.04 2.14 2.09 1.93 1.86 1.94 2.18 2.51 2.47 2.35 2.15 2.08 2.14 2.23 2.18 1.86 1.47 1.59 1.91 2.60 3.10 2.87 2.45 2.17 2.21 2.41 2.68
1.50 1.36 1.23 1.27 1.44 1.55 1.68 1.83 1.80 1.75 1.75 1.68 1.74 1.78 1.85 1.96 2.02 1.99 2.00 1.93 1.91 1.99 2.12 2.36 2.32 2.24 2.19 2.18 2.14 2.22 2.26 2.07 1.67 1.59 1.59 2.37 3.06 2.97 2.43 2.11 2.05 2.28 2.43
1.57 1.44 1.22 1.11 1.13 1.27 1.32 1.53 1.78 1.83 1.76 1.64 1.70 1.81 1.92 1.97 1.97 1.97 1.89 2.02 2.11 2.09 2.22 2.41 2.32 2.18 2.18 2.10 2.07 2.23 2.25 1.93 1.57 1.49 1.74 2.37 3.19 3.23 2.78 2.17 1.93 1.98 2.06
1.33 1.24 1.16 1.11 1.14 1.25 1.29 1.36 1.68 1.76 1.67 1.49 1.46 1.67 1.71 1.59 1.68 1.93 2.05 2.35 2.32 2.32 2.41 2.53 2.49 2.25 2.02 1.96 2.07 2.15 1.97 1.63 1.56 1.61 2.01 2.75 3.21 3.18 2.92 2.42 1.99 1.80 1.76
1.05 0.95 0.93 0.93 1.02 1.14 1.19 1.55 1.83 1.65 1.57 1.34 1.35 1.34 1.43 1.51 1.74 1.77 2.08 2.51 2.41 2.33 2.32 2.46 2.46 2.06 1.60 1.35 1.64 1.73 1.53 1.57 1.60 1.58 2.11 2.89 3.21 3.13 2.81 2.48 2.12 1.89 1.79
0.82 0.74 0.70 0.66 0.67 0.76 0.99 1.35 1.66 1.81 1.82 1.80 1.61 1.43 1.46 1.25 1.21 1.25 1.36 1.56 1.63 1.70 1.66 1.78 1.92 1.62 1.34 1.28 1.32 1.39 1.53 1.49 1.70 1.70 2.19 2.87 3.16 3.22 2.90 2.56 2.24 2.03 1.95
0.78 0.75 0.67 0.63 0.58 0.60 0.68 0.88 1.13 1.31 1.43 1.50 1.41 1.23 1.30 1.20 1.12 1.14 1.18 1.18 1.18 1.28 1.42 1.43 1.55 1.52 1.32 1.21 1.18 1.31 1.38 1.37 1.57 1.87 2.34 2.62 2.97 3.27 3.10 2.73 2.44 2.23 2.18
0.90 0.89 0.80 0.68 0.63 0.63 0.68 0.75 0.83 1.02 1.15 1.18 1.25 1.18 1.15 1.21 1.22 1.17 1.08 1.09 1.02 1.10 1.26 1.38 1.43 1.46 1.47 1.39 1.24 1.35 1.41 1.49 1.58 1.68 1.95 2.29 2.62 3.12 3.45 3.31 2.92 2.59 2.47
1.00 0.95 0.92 0.80 0.76 0.73 0.72 0.73 0.81 0.91 0.97 0.99 0.98 0.98 1.07 1.18 1.18 1.19 1.16 1.20 1.14 1.17 1.30 1.33 1.28 1.40 1.59 1.51 1.33 1.31 1.34 1.41 1.51 1.52 1.65 1.94 2.26 2.57 3.27 3.62 3.47 3.22 3.09
0.96 0.89 0.89 0.89 0.90 0.88 0.84 0.78 0.80 0.90 0.98 0.97 0.93 0.85 0.88 1.00 1.06 1.13 1.16 1.14 1.17 1.31 1.37 1.43 1.25 1.32 1.38 1.37 1.36 1.32 1.24 1.27 1.31 1.35 1.37 1.50 1.70 2.02 2.63 3.24 3.54 3.55 3.52
0.79 0.77 0.85 0.86 0.88 0.92 0.93 0.93 0.95 0.97 1.05 1.00 0.98 0.89 0.85 0.91 1.01 1.16 1.17 1.12 1.13 1.31 1.46 1.54 1.45 1.46 1.45 1.41 1.41 1.38 1.27 1.30 1.22 1.24 1.28 1.34 1.58 1.57 1.97 2.49 2.86 3.08 3.38
0.72 0.72 0.73 0.79 0.78 0.85 0.91 0.96 1.07 1.10 1.13 1.09 1.07 0.98 0.94 1.01 1.10 1.28 1.39 1.37 1.33 1.37 1.41 1.42 1.53 1.58 1.57 1.57 1.46 1.42 1.37 1.30 1.33 1.22 1.25 1.36 1.38 1.50 1.71 1.94 2.17 2.34 2.74
0.70 0.68 0.66 0.72 0.74 0.76 0.88 1.00 1.19 1.31 1.30 1.31 1.21 1.13 1.15 1.30 1.44 1.58 1.58 1.65 1.68 1.60 1.61 1.58 1.64 1.63 1.56 1.64 1.49 1.36 1.34 1.26 1.39 1.46 1.39 1.44 1.45 1.45 1.80 2.00 1.96 1.84 2.21
0.64 0.65 0.64 0.62 0.70 0.74 0.79 0.93 1.16 1.45 1.57 1.66 1.57 1.37 1.31 1.44 1.72 1.98 1.94 2.00 2.06 1.99 1.95 1.95 2.19 2.13 1.85 1.66 1.77 1.61 1.44 1.31 1.48 1.56 1.51 1.60 1.69 1.81 2.03 2.05 1.87 1.70 1.64
0.52 0.58 0.60 0.58 0.65 0.71 0.76 0.94 1.12 1.28 1.29 1.45 1.57 1.53 1.45 1.43 1.59 1.77 2.07 2.20 2.16 2.28 2.39 2.37 2.74 2.88 2.38 1.93 2.05 2.31 2.04 1.83 1.63 1.50 1.56 1.63 1.77 2.00 2.11 1.99 1.81 1.61 1.49
0.43 0.42 0.46 0.49 0.56 0.67 0.81 1.03 1.27 1.50 1.57 1.59 1.50 1.58 1.59 1.49 1.55 1.69 1.85 2.00 2.04 2.19 2.37 2.49 2.82 3.36 3.11 2.43 2.24 2.69 2.47 2.24 2.11 1.79 1.63 1.63 1.70 1.98 2.25 2.19 1.96 1.73 1.55
0.39 0.38 0.41 0.50 0.63 0.82 1.02 1.24 1.49 1.70 1.76 1.62 1.61 1.64 1.53 1.44 1.43 1.56 1.69 1.81 1.94 2.00 2.17 2.27 2.41 3.00 3.40 3.05 2.74 2.44 2.12 2.08 2.28 2.28 1.91 1.71 1.70 1.84 2.06 2.06 1.94 1.88 1.74
0.46 0.48 0.53 0.71 0.93 1.18 1.38 1.64 1.93 1.90 1.79 1.69 1.64 1.63 1.57 1.54 1.51 1.52 1.69 1.75 1.77 1.86 2.00 2.33 2.60 2.91 3.15 3.17 3.15 2.92 2.62 2.34 2.01 2.30 2.36 2.01 1.87 1.83 1.89 1.94 1.85 1.84 1.83
0.74 0.90 1.09 1.34 1.49 1.58 1.70 1.85 1.96 1.90 1.89 1.84 1.66 1.57 1.56 1.61 1.66 1.67 1.72 1.75 1.72 1.77 1.90 2.16 2.47 2.70 3.03 3.26 3.22 3.01 2.87 2.75 2.50 2.44 2.31 2.15 2.16 2.01 1.88 1.84 1.70 1.69 1.83

GEFSSE_prec_meanprecacc_312.txt.gz
Total_Precipitation_Accumulation
2.11 2.17 3.19 3.11 2.88 2.80 2.69 2.68 2.64 2.62 2.55 2.39 2.20 2.13 2.12 2.04 1.90 1.83 1.74 1.76 1.83 2.00 2.05 2.12 2.16 2.10 2.14 2.12 2.08 2.01 1.99 2.10 2.05 1.81 1.75 1.80 1.92 2.15 2.24 2.26 2.23 2.21 2.52
1.67 2.10 3.12 3.01 2.85 2.69 2.58 2.62 2.54 2.40 2.24 2.04 1.96 1.97 2.05 1.96 1.87 1.74 1.68 1.78 1.83 1.92 1.92 2.00 2.02 2.03 2.04 2.08 2.10 2.14 2.08 1.97 1.91 1.82 1.97 2.03 2.18 2.28 2.24 2.19 2.35 2.40 2.52
1.49 1.76 2.36 3.02 2.87 2.64 2.57 2.62 2.54 2.32 2.03 1.82 1.76 1.78 1.79 1.76 1.79 1.80 1.79 1.77 1.83 1.80 1.71 1.88 2.12 2.15 2.11 2.07 2.10 2.13 2.11 2.01 1.99 2.13 2.60 2.94 2.63 2.48 2.21 2.21 2.30 2.22 2.26
1.34 1.52 1.84 2.72 2.69 2.62 2.60 2.41 2.36 2.10 1.81 1.67 1.64 1.64 1.62 1.69 1.90 2.03 1.97 1.92 1.94 1.74 1.57 1.62 2.01 2.17 2.14 2.02 1.87 1.88 2.02 2.12 2.26 2.50 2.82 3.31 3.20 2.88 2.58 2.42 2.37 2.28 2.21
1.34 1.56 2.22 2.79 2.57 2.51 2.39 2.21 2.20 2.06 1.83 1.72 1.67 1.64 1.68 1.91 2.06 2.05 2.07 2.02 1.96 1.79 1.71 1.82 2.19 2.11 2.05 1.96 1.83 1.82 1.98 2.22 2.44 2.29 2.55 3.01 3.46 3.43 2.81 2.52 2.46 2.45 2.47
1.35 1.55 2.19 2.53 2.27 2.17 2.13 2.07 1.98 2.03 2.03 1.82 1.65 1.69 1.87 2.21 2.23 2.21 2.22 1.98 1.96 1.88 1.92 2.05 2.24 2.22 2.14 2.09 2.00 1.85 1.97 2.25 2.14 2.07 2.51 2.91 3.21 3.23 2.69 2.49 2.53 2.62 2.70
1.17 1.29 1.74 2.21 2.03 1.93 1.94 1.93 1.84 1.94 2.04 1.92 1.68 1.80 2.01 2.24 2.31 2.32 2.20 2.00 1.99 1.99 2.08 2.30 2.32 2.36 2.27 2.12 2.13 2.04 2.01 2.03 1.81 2.05 2.52 2.93 2.98 2.84 2.62 2.43 2.39 2.64 2.89
1.21 1.17 1.35 1.81 1.89 1.75 1.78 1.94 1.85 1.85 1.95 1.90 1.80 1.84 1.88 2.08 2.24 2.27 2.17 2.00 1.93 2.03 2.28 2.61 2.56 2.44 2.25 2.16 2.20 2.26 2.21 1.89 1.49 1.62 1.96 2.71 3.22 2.99 2.58 2.28 2.29 2.48 2.76
1.50 1.37 1.24 1.30 1.48 1.59 1.71 1.87 1.85 1.80 1.78 1.71 1.80 1.86 1.95 2.09 2.14 2.09 2.09 2.02 1.99 2.08 2.21 2.45 2.40 2.30 2.26 2.24 2.19 2.25 2.29 2.10 1.71 1.63 1.62 2.44 3.16 3.10 2.55 2.21 2.11 2.35 2.51
1.58 1.45 1.23 1.12 1.15 1.32 1.37 1.57 1.82 1.86 1.79 1.67 1.74 1.87 1.98 2.06 2.07 2.06 1.99 2.13 2.21 2.18 2.31 2.49 2.39 2.24 2.25 2.16 2.10 2.26 2.30 2.02 1.67 1.54 1.79 2.43 3.29 3.32 2.86 2.23 1.98 2.03 2.12
1.36 1.26 1.17 1.11 1.15 1.27 1.32 1.39 1.71 1.78 1.68 1.51 1.48 1.72 1.77 1.66 1.78 2.03 2.15 2.46 2.43 2.42 2.50 2.61 2.57 2.34 2.09 2.01 2.10 2.18 2.03 1.76 1.75 1.68 2.08 2.85 3.31 3.28 2.99 2.48 2.05 1.86 1.80
1.08 0.97 0.94 0.94 1.02 1.14 1.19 1.56 1.84 1.65 1.58 1.35 1.37 1.38 1.50 1.58 1.82 1.86 2.19 2.63 2.53 2.44 2.40 2.54 2.54 2.14 1.66 1.38 1.66 1.76 1.60 1.73 1.86 1.72 2.22 3.03 3.35 3.24 2.88 2.56 2.20 1.98 1.85
0.83 0.76 0.72 0.67 0.67 0.76 1.00 1.35 1.67 1.82 1.83 1.82 1.62 1.45 1.51 1.32 1.28 1.32 1.47 1.69 1.78 1.83 1.76 1.86 1.97 1.66 1.38 1.31 1.35 1.43 1.58 1.61 1.93 1.88 2.30 2.99 3.29 3.33 2.99 2.64 2.35 2.14 2.05
0.79 0.75 0.67 0.63 0.59 0.61 0.69 0.88 1.13 1.32 1.44 1.51 1.42 1.24 1.32 1.25 1.19 1.21 1.26 1.26 1.27 1.37 1.49 1.49 1.60 1.55 1.35 1.25 1.22 1.36 1.44 1.45 1.70 1.99 2.43 2.71 3.07 3.38 3.19 2.80 2.53 2.33 2.26
0.90 0.90 0.80 0.68 0.63 0.63 0.69 0.75 0.83 1.03 1.16 1.19 1.25 1.18 1.16 1.23 1.26 1.24 1.16 1.17 1.08 1.16 1.31 1.43 1.46 1.48 1.50 1.43 1.28 1.40 1.47 1.56 1.64 1.73 2.01 2.36 2.70 3.23 3.55 3.39 3.02 2.69 2.55
1.00 0.96 0.92 0.80 0.77 0.73 0.72 0.74 0.82 0.92 0.97 0.99 0.98 0.98 1.07 1.19 1.21 1.23 1.22 1.26 1.19 1.22 1.35 1.37 1.30 1.43 1.62 1.54 1.36 1.34 1.38 1.46 1.56 1.56 1.70 2.00 2.33 2.69 3.41 3.75 3.61 3.36 3.20
0.97 0.90 0.90 0.90 0.91 0.89 0.85 0.79 0.80 0.91 0.99 0.98 0.94 0.86 0.88 1.00 1.07 1.15 1.19 1.17 1.20 1.33 1.40 1.46 1.28 1.35 1.42 1.41 1.41 1.36 1.30 1.32 1.35 1.39 1.41 1.54 1.75 2.13 2.78 3.43 3.81 3.76 3.68
0.79 0.78 0.86 0.87 0.89 0.92 0.93 0.94 0.96 0.98 1.07 1.01 0.99 0.90 0.86 0.92 1.03 1.17 1.20 1.15 1.15 1.34 1.49 1.57 1.48 1.50 1.48 1.47 1.49 1.46 1.34 1.36 1.26 1.27 1.31 1.36 1.61 1.62 2.04 2.62 3.10 3.28 3.49
0.72 0.72 0.74 0.80 0.79 0.85 0.91 0.96 1.08 1.12 1.14 1.10 1.08 0.99 0.96 1.03 1.14 1.30 1.40 1.38 1.34 1.39 1.45 1.46 1.56 1.60 1.59 1.60 1.50 1.48 1.44 1.37 1.38 1.25 1.27 1.38 1.41 1.53 1.75 2.00 2.31 2.48 2.83
0.70 0.68 0.67 0.72 0.75 0.77 0.88 1.00 1.20 1.33 1.31 1.31 1.21 1.14 1.17 1.31 1.47 1.60 1.60 1.67 1.69 1.61 1.63 1.61 1.69 1.68 1.61 1.67 1.52 1.40 1.38 1.31 1.42 1.49 1.42 1.46 1.46 1.46 1.82 2.03 2.03 1.92 2.27
0.65 0.66 0.66 0.64 0.71 0.74 0.79 0.94 1.18 1.46 1.57 1.66 1.57 1.38 1.32 1.45 1.74 1.99 1.94 2.01 2.07 2.00 1.97 1.96 2.22 2.18 1.92 1.74 1.83 1.67 1.49 1.37 1.53 1.59 1.53 1.63 1.70 1.82 2.04 2.06 1.90 1.74 1.67
0.53 0.59 0.63 0.62 0.68 0.71 0.76 0.94 1.12 1.29 1.30 1.45 1.57 1.54 1.45 1.44 1.61 1.79 2.07 2.21 2.17 2.30 2.41 2.38 2.75 2.90 2.41 1.98 2.12 2.38 2.11 1.89 1.68 1.54 1.60 1.65 1.80 2.02 2.12 2.00 1.83 1.63 1.51
0.43 0.43 0.47 0.52 0.59 0.69 0.82 1.04 1.27 1.51 1.58 1.60 1.50 1.58 1.59 1.50 1.56 1.70 1.86 2.01 2.05 2.20 2.39 2.51 2.83 3.38 3.14 2.46 2.28 2.73 2.53 2.31 2.16 1.82 1.66 1.66 1.72 2.00 2.28 2.22 1.98 1.75 1.56
0.40 0.39 0.43 0.52 0.65 0.86 1.04 1.25 1.50 1.71 1.77 1.64 1.62 1.64 1.53 1.44 1.43 1.56 1.69 1.81 1.94 2.01 2.19 2.28 2.42 3.01 3.42 3.08 2.77 2.46 2.15 2.12 2.33 2.31 1.93 1.73 1.72 1.86 2.08 2.09 1.97 1.90 1.75
0.46 0.49 0.54 0.72 0.94 1.20 1.41 1.66 1.95 1.92 1.80 1.70 1.65 1.63 1.57 1.55 1.51 1.52 1.69 1.75 1.77 1.86 2.01 2.35 2.62 2.92 3.17 3.20 3.18 2.94 2.64 2.36 2.03 2.32 2.38 2.03 1.89 1.85 1.90 1.95 1.86 1.86 1.84
0.75 0.90 1.09 1.34 1.49 1.59 1.72 1.86 1.98 1.92 1.92 1.86 1.67 1.58 1.56 1.61 1.66 1.68 1.73 1.75 1.72 1.77 1.90 2.17 2.48 2.71 3.04 3.28 3.24 3.03 2.90 2.77 2.51 2.45 2.33 2.17 2.18 2.04 1.90 1.85 1.71 1.70 1.85

GEFSSE_prec_meanprecacc_318.txt.gz
Total_Precipitation_Accumulation
2.16 2.21 3.21 3.15 2.95 2.86 2.75 2.74 2.71 2.70 2.66 2.53 2.32 2.25 2.22 2.13 2.00 1.96 1.85 1.85 1.91 2.08 2.13 2.22 2.26 2.19 2.25 2.24 2.19 2.13 2.14 2.22 2.13 1.90 1.86 1.89 2.02 2.26 2.36 2.40 2.35 2.30 2.59
1.70 2.12 3.13 3.04 2.91 2.77 2.65 2.67 2.60 2.48 2.33 2.18 2.14 2.13 2.17 2.08 1.98 1.86 1.80 1.89 1.92 2.01 2.00 2.08 2.11 2.12 2.14 2.18 2.19 2.24 2.19 2.09 2.02 1.94 2.10 2.13 2.27 2.36 2.33 2.29 2.44 2.49 2.60
1.50 1.78 2.37 3.03 2.91 2.69 2.63 2.69 2.62 2.41 2.11 1.93 1.89 1.93 1.96 1.91 1.92 1.93 1.93 1.90 1.96 1.92 1.82 1.98 2.24 2.26 2.19 2.16 2.18 2.20 2.20 2.12 2.12 2.28 2.76 3.10 2.78 2.60 2.30 2.31 2.41 2.33 2.34
1.35 1.54 1.84 2.74 2.72 2.67 2.65 2.46 2.41 2.17 1.89 1.76 1.73 1.73 1.75 1.88 2.10 2.20 2.13 2.06 2.07 1.87 1.70 1.74 2.12 2.27 2.22 2.08 1.93 1.95 2.09 2.20 2.38 2.66 2.99 3.48 3.34 3.00 2.68 2.50 2.46 2.37 2.30
1.36 1.58 2.24 2.82 2.60 2.54 2.44 2.26 2.25 2.12 1.89 1.77 1.74 1.71 1.75 2.01 2.19 2.18 2.20 2.16 2.09 1.91 1.82 1.92 2.28 2.19 2.14 2.03 1.90 1.91 2.04 2.29 2.54 2.40 2.63 3.10 3.55 3.55 2.90 2.60 2.56 2.55 2.57
1.38 1.57 2.21 2.56 2.31 2.21 2.17 2.12 2.02 2.06 2.08 1.86 1.70 1.74 1.93 2.28 2.32 2.32 2.34 2.11 2.08 1.99 2.02 2.14 2.32 2.30 2.21 2.15 2.06 1.91 2.02 2.33 2.22 2.13 2.58 2.98 3.30 3.37 2.81 2.59 2.61 2.70 2.78
1.20 1.31 1.75 2.23 2.07 1.98 1.98 1.97 1.87 1.96 2.09 1.97 1.74 1.85 2.10 2.41 2.44 2.40 2.28 2.08 2.08 2.08 2.16 2.38 2.41 2.43 2.33 2.17 2.19 2.10 2.07 2.11 1.88 2.12 2.60 3.03 3.08 2.94 2.75 2.57 2.49 2.72 2.97
1.23 1.18 1.36 1.83 1.93 1.80 1.83 1.98 1.89 1.88 1.99 1.94 1.86 1.89 2.03 2.37 2.35 2.34 2.24 2.08 2.01 2.10 2.37 2.70 2.63 2.51 2.31 2.21 2.25 2.32 2.28 1.97 1.59 1.72 2.07 2.82 3.30 3.08 2.70 2.44 2.43 2.57 2.85
1.51 1.38 1.26 1.32 1.50 1.63 1.76 1.91 1.90 1.85 1.83 1.77 1.87 1.91 2.12 2.45 2.31 2.16 2.15 2.09 2.06 2.16 2.30 2.53 2.45 2.34 2.30 2.29 2.24 2.30 2.35 2.18 1.79 1.71 1.69 2.51 3.24 3.21 2.71 2.35 2.24 2.45 2.59
1.59 1.46 1.25 1.15 1.19 1.36 1.41 1.60 1.84 1.90 1.82 1.71 1.79 1.93 2.10 2.32 2.28 2.15 2.06 2.20 2.29 2.27 2.39 2.55 2.42 2.26 2.27 2.19 2.15 2.32 2.36 2.07 1.73 1.58 1.84 2.49 3.38 3.48 3.05 2.39 2.10 2.14 2.20
1.37 1.27 1.17 1.12 1.17 1.29 1.35 1.40 1.73 1.81 1.71 1.55 1.55 1.81 1.85 1.81 1.90 2.12 2.22 2.53 2.51 2.50 2.57 2.65 2.61 2.37 2.12 2.04 2.15 2.26 2.10 1.81 1.80 1.73 2.14 2.91 3.40 3.41 3.18 2.65 2.16 1.92 1.86
1.09 0.98 0.94 0.94 1.03 1.15 1.21 1.59 1.88 1.68 1.61 1.39 1.43 1.47 1.58 1.68 1.93 1.95 2.25 2.68 2.59 2.51 2.46 2.59 2.58 2.18 1.69 1.41 1.71 1.81 1.66 1.81 1.96 1.79 2.32 3.13 3.44 3.36 3.00 2.66 2.27 2.03 1.91
0.83 0.76 0.73 0.67 0.68 0.76 1.01 1.37 1.70 1.85 1.86 1.84 1.67 1.52 1.61 1.39 1.36 1.39 1.52 1.74 1.82 1.87 1.80 1.90 2.00 1.70 1.43 1.34 1.38 1.46 1.65 1.73 2.10 2.05 2.43 3.09 3.41 3.46 3.11 2.73 2.40 2.20 2.12
0.80 0.75 0.67 0.63 0.59 0.61 0.70 0.90 1.15 1.33 1.46 1.54 1.45 1.28 1.40 1.33 1.26 1.28 1.32 1.31 1.31 1.40 1.52 1.51 1.63 1.58 1.38 1.28 1.25 1.39 1.52 1.59 1.87 2.23 2.58 2.80 3.16 3.49 3.30 2.88 2.58 2.37 2.31
0.92 0.90 0.80 0.69 0.64 0.64 0.69 0.76 0.85 1.04 1.17 1.20 1.28 1.21 1.20 1.31 1.35 1.30 1.22 1.22 1.14 1.21 1.35 1.46 1.48 1.51 1.53 1.45 1.30 1.43 1.53 1.67 1.80 1.89 2.13 2.44 2.77 3.33 3.68 3.51 3.10 2.76 2.61
1.01 0.96 0.92 0.81 0.77 0.74 0.73 0.74 0.83 0.92 0.98 1.00 1.00 1.00 1.10 1.24 1.28 1.31 1.29 1.32 1.27 1.27 1.38 1.40 1.33 1.46 1.64 1.57 1.38 1.35 1.42 1.54 1.69 1.68 1.78 2.05 2.38 2.78 3.57 3.94 3.77 3.45 3.29
0.97 0.90 0.90 0.90 0.92 0.90 0.86 0.79 0.81 0.91 0.99 0.99 0.95 0.87 0.90 1.02 1.11 1.21 1.24 1.23 1.26 1.40 1.45 1.50 1.32 1.38 1.44 1.44 1.43 1.39 1.33 1.38 1.45 1.50 1.46 1.58 1.79 2.19 2.88 3.57 3.98 3.91 3.81
0.79 0.78 0.86 0.87 0.90 0.93 0.94 0.94 0.96 0.98 1.07 1.02 1.01 0.92 0.87 0.93 1.04 1.20 1.22 1.18 1.20 1.39 1.54 1.62 1.53 1.54 1.52 1.49 1.52 1.49 1.38 1.40 1.32 1.35 1.37 1.39 1.64 1.66 2.09 2.72 3.27 3.48 3.67
0.72 0.72 0.74 0.80 0.79 0.86 0.92 0.96 1.08 1.13 1.15 1.11 1.09 1.00 0.97 1.04 1.15 1.32 1.41 1.40 1.37 1.43 1.49 1.49 1.60 1.64 1.63 1.64 1.55 1.52 1.49 1.42 1.44 1.30 1.33 1.43 1.44 1.56 1.78 2.04 2.46 2.74 3.02
0.71 0.68 0.68 0.74 0.76 0.78 0.90 1.01 1.20 1.34 1.32 1.32 1.22 1.15 1.18 1.33 1.49 1.62 1.61 1.68 1.70 1.64 1.66 1.64 1.72 1.70 1.64 1.71 1.56 1.45 1.45 1.36 1.48 1.54 1.47 1.51 1.50 1.49 1.86 2.08 2.11 2.05 2.40
0.65 0.67 0.68 0.66 0.72 0.76 0.80 0.95 1.19 1.47 1.58 1.67 1.58 1.38 1.33 1.47 1.76 2.02 1.95 2.01 2.07 2.01 1.99 1.98 2.23 2.20 1.94 1.77 1.87 1.72 1.56 1.44 1.61 1.64 1.57 1.66 1.73 1.85 2.08 2.12 1.97 1.84 1.76
0.53 0.60 0.65 0.64 0.69 0.72 0.77 0.95 1.13 1.30 1.30 1.46 1.58 1.54 1.46 1.45 1.63 1.80 2.08 2.22 2.18 2.32 2.42 2.39 2.76 2.92 2.43 2.00 2.15 2.43 2.17 1.98 1.78 1.63 1.66 1.70 1.84 2.06 2.16 2.04 1.88 1.68 1.56
0.43 0.44 0.48 0.52 0.60 0.70 0.83 1.04 1.28 1.52 1.60 1.62 1.52 1.58 1.59 1.50 1.57 1.72 1.87 2.02 2.06 2.21 2.40 2.52 2.84 3.40 3.16 2.49 2.31 2.77 2.59 2.39 2.25 1.91 1.72 1.72 1.79 2.04 2.31 2.25 2.01 1.78 1.58
0.41 0.41 0.44 0.53 0.66 0.86 1.05 1.26 1.51 1.72 1.78 1.65 1.63 1.65 1.54 1.45 1.44 1.57 1.71 1.82 1.95 2.01 2.19 2.29 2.43 3.02 3.44 3.10 2.80 2.50 2.20 2.18 2.39 2.38 2.00 1.78 1.77 1.90 2.11 2.11 1.99 1.93 1.78
0.48 0.52 0.55 0.73 0.95 1.21 1.41 1.67 1.96 1.94 1.83 1.73 1.67 1.64 1.58 1.55 1.52 1.53 1.70 1.76 1.77 1.86 2.01 2.35 2.62 2.93 3.19 3.22 3.20 2.97 2.67 2.39 2.06 2.35 2.43 2.08 1.93 1.89 1.93 1.98 1.89 1.88 1.87
0.76 0.91 1.10 1.35 1.50 1.59 1.72 1.87 1.99 1.94 1.94 1.89 1.71 1.60 1.58 1.62 1.67 1.68 1.73 1.76 1.74 1.79 1.91 2.18 2.50 2.72 3.05 3.29 3.26 3.06 2.93 2.81 2.54 2.47 2.36 2.20 2.21 2.07 1.93 1.88 1.74 1.73 1.87

GEFSSE_prec_meanprecacc_324.txt.gz
Total_Precipitation_Accumulation
2.20 2.26 3.28 3.22 3.00 2.90 2.78 2.77 2.75 2.75 2.72 2.62 2.40 2.32 2.29 2.20 2.11 2.15 1.99 1.91 1.96 2.13 2.18 2.27 2.31 2.25 2.32 2.32 2.27 2.21 2.22 2.30 2.23 2.00 1.95 1.98 2.13 2.37 2.48 2.51 2.42 2.37 2.68
1.73 2.16 3.18 3.10 2.97 2.82 2.69 2.70 2.64 2.53 2.38 2.28 2.25 2.22 2.23 2.13 2.05 1.97 1.91 1.96 1.99 2.08 2.07 2.14 2.17 2.18 2.20 2.24 2.27 2.34 2.28 2.18 2.12 2.05 2.22 2.24 2.38 2.47 2.43 2.40 2.52 2.55 2.67
1.53 1.78 2.39 3.08 2.95 2.73 2.66 2.72 2.65 2.46 2.18 2.01 1.99 2.03 2.03 1.98 1.98 1.99 2.00 1.98 2.02 1.98 1.88 2.04 2.31 2.32 2.25 2.23 2.25 2.29 2.28 2.19 2.20 2.38 2.88 3.20 2.87 2.71 2.42 2.42 2.50 2.40 2.41
1.37 1.54 1.85 2.76 2.74 2.70 2.68 2.50 2.44 2.21 1.94 1.80 1.79 1.81 1.84 1.96 2.17 2.25 2.19 2.13 2.13 1.93 1.77 1.80 2.19 2.32 2.27 2.14 1.99 2.01 2.15 2.27 2.45 2.75 3.08 3.54 3.40 3.11 2.78 2.60 2.56 2.46 2.37
1.38 1.59 2.25 2.84 2.62 2.57 2.47 2.29 2.27 2.15 1.92 1.81 1.78 1.76 1.84 2.10 2.26 2.24 2.26 2.21 2.14 1.97 1.88 1.97 2.33 2.24 2.19 2.08 1.95 1.97 2.10 2.35 2.61 2.46 2.69 3.14 3.59 3.62 2.99 2.70 2.66 2.64 2.66
1.40 1.58 2.23 2.58 2.33 2.23 2.19 2.15 2.04 2.08 2.10 1.90 1.73 1.78 1.98 2.35 2.39 2.39 2.43 2.19 2.14 2.05 2.07 2.17 2.35 2.32 2.24 2.19 2.10 1.97 2.09 2.40 2.28 2.17 2.60 3.00 3.33 3.45 2.92 2.70 2.71 2.79 2.87
1.22 1.33 1.78 2.27 2.10 2.00 2.00 1.99 1.89 1.98 2.11 2.00 1.77 1.88 2.14 2.46 2.50 2.46 2.35 2.16 2.17 2.16 2.21 2.42 2.44 2.46 2.35 2.20 2.23 2.14 2.11 2.17 1.90 2.13 2.61 3.04 3.12 3.02 2.85 2.69 2.59 2.82 3.07
1.24 1.19 1.38 1.86 1.96 1.83 1.86 2.00 1.91 1.90 2.01 1.96 1.88 1.91 2.08 2.46 2.44 2.41 2.31 2.16 2.10 2.19 2.43 2.75 2.67 2.54 2.34 2.24 2.29 2.36 2.32 2.00 1.60 1.73 2.08 2.84 3.37 3.18 2.82 2.60 2.57 2.68 2.94
1.52 1.39 1.27 1.33 1.52 1.65 1.78 1.93 1.92 1.89 1.86 1.79 1.89 1.94 2.22 2.64 2.39 2.22 2.22 2.15 2.12 2.23 2.37 2.58 2.50 2.38 2.34 2.33 2.29 2.34 2.39 2.21 1.81 1.72 1.71 2.54 3.32 3.32 2.83 2.53 2.41 2.55 2.67
1.61 1.47 1.26 1.15 1.19 1.36 1.42 1.62 1.87 1.92 1.85 1.74 1.83 1.99 2.27 2.66 2.41 2.20 2.09 2.25 2.34 2.32 2.45 2.62 2.48 2.32 2.33 2.24 2.21 2.37 2.40 2.10 1.75 1.60 1.85 2.54 3.46 3.57 3.16 2.49 2.20 2.22 2.26
1.39 1.29 1.19 1.13 1.17 1.29 1.35 1.42 1.76 1.83 1.74 1.57 1.57 1.87 1.99 2.12 2.11 2.17 2.24 2.56 2.55 2.55 2.63 2.72 2.68 2.46 2.19 2.09 2.20 2.30 2.12 1.83 1.82 1.75 2.17 2.98 3.47 3.50 3.27 2.75 2.25 1.99 1.93
1.11 1.00 0.97 0.96 1.04 1.16 1.22 1.59 1.89 1.69 1.62 1.41 1.44 1.52 1.67 1.88 2.13 2.01 2.28 2.71 2.62 2.54 2.49 2.62 2.62 2.24 1.74 1.45 1.74 1.84 1.68 1.82 1.98 1.82 2.38 3.20 3.53 3.47 3.09 2.79 2.39 2.11 1.99
0.86 0.78 0.74 0.68 0.69 0.78 1.02 1.38 1.70 1.86 1.87 1.86 1.68 1.56 1.65 1.47 1.48 1.47 1.56 1.77 1.85 1.89 1.81 1.92 2.03 1.74 1.46 1.38 1.42 1.48 1.68 1.76 2.11 2.08 2.52 3.17 3.48 3.56 3.22 2.89 2.51 2.30 2.23
0.82 0.78 0.69 0.65 0.60 0.63 0.71 0.92 1.15 1.33 1.46 1.56 1.48 1.31 1.44 1.38 1.31 1.33 1.36 1.34 1.33 1.41 1.54 1.53 1.64 1.62 1.43 1.32 1.29 1.42 1.56 1.63 1.89 2.29 2.69 2.89 3.23 3.57 3.40 2.99 2.70 2.50 2.43
0.93 0.92 0.82 0.70 0.66 0.66 0.71 0.78 0.86 1.05 1.18 1.23 1.31 1.25 1.25 1.36 1.39 1.35 1.26 1.24 1.15 1.22 1.36 1.47 1.49 1.53 1.55 1.47 1.32 1.45 1.56 1.71 1.83 1.93 2.21 2.50 2.84 3.42 3.76 3.59 3.20 2.84 2.69
1.03 0.97 0.93 0.82 0.79 0.75 0.74 0.76 0.84 0.93 0.99 1.02 1.03 1.03 1.14 1.29 1.33 1.35 1.32 1.36 1.30 1.30 1.40 1.41 1.34 1.48 1.66 1.58 1.39 1.37 1.44 1.58 1.75 1.73 1.86 2.12 2.45 2.86 3.66 4.03 3.86 3.53 3.36
0.98 0.91 0.91 0.92 0.93 0.92 0.88 0.81 0.81 0.92 1.00 1.00 0.98 0.90 0.93 1.06 1.16 1.26 1.28 1.27 1.30 1.42 1.47 1.52 1.35 1.40 1.45 1.45 1.45 1.40 1.35 1.42 1.51 1.58 1.54 1.62 1.82 2.25 2.95 3.65 4.09 4.06 3.96
0.80 0.79 0.88 0.88 0.91 0.95 0.95 0.95 0.97 0.99 1.08 1.03 1.02 0.94 0.90 0.94 1.06 1.23 1.27 1.23 1.23 1.42 1.57 1.66 1.56 1.56 1.54 1.52 1.54 1.50 1.39 1.43 1.36 1.44 1.48 1.44 1.66 1.68 2.14 2.80 3.36 3.59 3.83
0.73 0.74 0.76 0.81 0.80 0.87 0.93 0.97 1.09 1.13 1.15 1.11 1.10 1.01 0.99 1.05 1.16 1.33 1.44 1.44 1.41 1.46 1.52 1.52 1.62 1.66 1.66 1.66 1.57 1.53 1.50 1.45 1.48 1.37 1.44 1.50 1.46 1.58 1.80 2.09 2.55 2.91 3.20
0.72 0.71 0.70 0.75 0.77 0.80 0.91 1.02 1.21 1.34 1.33 1.33 1.23 1.15 1.19 1.35 1.50 1.62 1.62 1.69 1.72 1.66 1.69 1.67 1.74 1.73 1.66 1.73 1.58 1.47 1.47 1.39 1.52 1.61 1.54 1.59 1.54 1.51 1.88 2.10 2.16 2.20 2.61
0.68 0.69 0.70 0.68 0.74 0.77 0.81 0.96 1.20 1.48 1.59 1.68 1.59 1.39 1.34 1.47 1.77 2.02 1.96 2.02 2.08 2.02 2.00 2.00 2.26 2.22 1.96 1.78 1.88 1.74 1.57 1.45 1.63 1.71 1.65 1.74 1.80 1.89 2.12 2.14 1.99 1.89 1.85
0.55 0.61 0.65 0.65 0.71 0.73 0.78 0.96 1.14 1.31 1.32 1.47 1.58 1.55 1.47 1.46 1.64 1.81 2.08 2.22 2.18 2.32 2.42 2.39 2.77 2.93 2.44 2.01 2.16 2.44 2.18 1.99 1.80 1.67 1.72 1.79 1.94 2.15 2.23 2.10 1.92 1.72 1.62
0.47 0.47 0.50 0.53 0.61 0.71 0.83 1.05 1.29 1.53 1.61 1.63 1.53 1.60 1.61 1.51 1.58 1.73 1.88 2.02 2.06 2.21 2.40 2.52 2.84 3.40 3.17 2.50 2.32 2.78 2.59 2.40 2.27 1.93 1.75 1.76 1.85 2.12 2.39 2.33 2.08 1.83 1.62
0.45 0.44 0.47 0.54 0.68 0.88 1.06 1.28 1.52 1.72 1.78 1.65 1.64 1.66 1.55 1.46 1.45 1.59 1.72 1.83 1.96 2.01 2.20 2.29 2.43 3.02 3.45 3.10 2.80 2.50 2.20 2.18 2.39 2.39 2.01 1.81 1.80 1.93 2.15 2.15 2.03 1.97 1.82
0.53 0.59 0.61 0.76 0.98 1.22 1.43 1.69 1.98 1.95 1.83 1.74 1.68 1.64 1.59 1.57 1.53 1.54 1.72 1.77 1.78 1.87 2.02 2.36 2.63 2.93 3.19 3.22 3.20 2.98 2.67 2.39 2.06 2.35 2.43 2.09 1.94 1.90 1.95 2.00 1.91 1.90 1.89
0.83 0.99 1.18 1.38 1.52 1.61 1.73 1.88 2.00 1.96 1.96 1.91 1.71 1.61 1.59 1.64 1.69 1.69 1.74 1.77 1.75 1.79 1.92 2.18 2.50 2.73 3.05 3.30 3.27 3.06 2.93 2.81 2.54 2.48 2.37 2.21 2.23 2.08 1.95 1.89 1.75 1.74 1.88

GEFSSE_prec_meanprecacc_330.txt.gz
Total_Precipitation_Accumulation
2.21 2.28 3.34 3.30 3.07 2.95 2.83 2.82 2.80 2.82 2.80 2.69 2.45 2.37 2.36 2.31 2.23 2.25 2.07 1.97 2.01 2.19 2.23 2.34 2.39 2.31 2.42 2.45 2.39 2.32 2.33 2.41 2.36 2.16 2.10 2.13 2.28 2.52 2.65 2.66 2.53 2.45 2.76
1.75 2.17 3.23 3.18 3.04 2.88 2.74 2.76 2.70 2.59 2.47 2.35 2.31 2.27 2.30 2.22 2.15 2.06 2.00 2.03 2.05 2.12 2.11 2.20 2.24 2.25 2.30 2.35 2.41 2.46 2.40 2.30 2.26 2.20 2.34 2.37 2.51 2.60 2.58 2.53 2.61 2.62 2.75
1.54 1.80 2.43 3.16 3.03 2.79 2.73 2.78 2.71 2.53 2.26 2.09 2.08 2.09 2.10 2.05 2.06 2.06 2.09 2.05 2.11 2.04 1.92 2.09 2.37 2.38 2.33 2.32 2.36 2.39 2.40 2.32 2.30 2.47 2.97 3.27 2.96 2.80 2.51 2.51 2.59 2.49 2.50
1.38 1.56 1.89 2.81 2.80 2.76 2.75 2.56 2.51 2.27 2.00 1.88 1.87 1.88 1.90 2.02 2.22 2.31 2.26 2.21 2.21 1.99 1.81 1.85 2.24 2.39 2.35 2.22 2.06 2.08 2.22 2.35 2.55 2.81 3.13 3.58 3.45 3.20 2.85 2.68 2.66 2.55 2.46
1.39 1.62 2.30 2.91 2.69 2.63 2.53 2.35 2.34 2.21 1.98 1.87 1.85 1.84 1.93 2.20 2.34 2.33 2.36 2.30 2.20 2.02 1.93 2.02 2.38 2.31 2.27 2.16 2.01 2.04 2.15 2.40 2.69 2.52 2.73 3.17 3.63 3.72 3.08 2.77 2.74 2.74 2.75
1.43 1.63 2.29 2.66 2.39 2.28 2.25 2.20 2.11 2.16 2.18 1.97 1.80 1.86 2.08 2.47 2.50 2.50 2.53 2.29 2.21 2.10 2.12 2.22 2.40 2.38 2.30 2.24 2.15 2.03 2.13 2.44 2.33 2.22 2.64 3.03 3.35 3.52 3.00 2.77 2.78 2.88 2.96
1.25 1.37 1.85 2.35 2.16 2.07 2.06 2.05 1.96 2.05 2.17 2.06 1.83 1.96 2.23 2.58 2.63 2.55 2.42 2.23 2.24 2.21 2.26 2.47 2.49 2.52 2.41 2.25 2.27 2.17 2.14 2.21 1.96 2.16 2.63 3.07 3.14 3.09 2.94 2.77 2.68 2.92 3.17
1.27 1.21 1.41 1.91 2.02 1.89 1.91 2.05 1.97 1.96 2.06 2.01 1.93 1.97 2.14 2.53 2.50 2.48 2.39 2.24 2.17 2.24 2.48 2.80 2.72 2.58 2.38 2.28 2.33 2.39 2.35 2.04 1.64 1.74 2.10 2.86 3.42 3.25 2.92 2.69 2.67 2.80 3.04
1.54 1.40 1.28 1.35 1.55 1.71 1.84 1.99 1.98 1.94 1.91 1.84 1.94 1.98 2.27 2.69 2.43 2.28 2.28 2.23 2.20 2.29 2.42 2.62 2.53 2.41 2.37 2.37 2.34 2.39 2.43 2.24 1.83 1.73 1.71 2.56 3.38 3.39 2.96 2.69 2.58 2.71 2.82
1.62 1.48 1.27 1.17 1.21 1.39 1.48 1.68 1.93 1.98 1.90 1.78 1.86 2.03 2.31 2.73 2.47 2.25 2.14 2.31 2.42 2.40 2.51 2.67 2.53 2.37 2.38 2.29 2.25 2.41 2.44 2.13 1.78 1.62 1.87 2.57 3.51 3.65 3.31 2.71 2.45 2.43 2.46
1.41 1.30 1.19 1.14 1.18 1.30 1.38 1.47 1.82 1.87 1.77 1.60 1.60 1.89 2.03 2.27 2.21 2.20 2.28 2.61 2.61 2.62 2.70 2.80 2.76 2.54 2.26 2.16 2.25 2.33 2.15 1.85 1.84 1.77 2.19 3.02 3.53 3.60 3.41 2.97 2.45 2.18 2.10
1.13 1.01 0.97 0.96 1.04 1.16 1.22 1.60 1.90 1.70 1.63 1.42 1.46 1.54 1.71 2.07 2.35 2.08 2.31 2.77 2.71 2.65 2.60 2.73 2.74 2.35 1.84 1.55 1.81 1.88 1.72 1.85 1.99 1.83 2.41 3.24 3.60 3.59 3.22 2.97 2.49 2.21 2.08
0.88 0.81 0.76 0.70 0.70 0.79 1.03 1.39 1.71 1.86 1.88 1.87 1.70 1.59 1.69 1.60 1.71 1.63 1.62 1.80 1.88 1.93 1.87 1.99 2.12 1.83 1.54 1.47 1.50 1.52 1.71 1.77 2.12 2.10 2.58 3.25 3.58 3.68 3.34 3.03 2.61 2.39 2.31
0.83 0.79 0.71 0.66 0.62 0.64 0.73 0.93 1.17 1.35 1.48 1.57 1.49 1.35 1.50 1.47 1.47 1.50 1.45 1.37 1.34 1.43 1.55 1.55 1.69 1.68 1.46 1.36 1.33 1.46 1.58 1.64 1.90 2.33 2.80 2.98 3.33 3.67 3.52 3.15 2.84 2.68 2.58
0.95 0.93 0.83 0.71 0.67 0.67 0.73 0.79 0.88 1.06 1.20 1.24 1.33 1.28 1.30 1.44 1.47 1.42 1.30 1.27 1.16 1.23 1.37 1.48 1.50 1.55 1.57 1.50 1.35 1.47 1.58 1.74 1.87 2.01 2.35 2.61 2.93 3.53 3.86 3.69 3.31 2.99 2.84
1.07 1.00 0.95 0.83 0.80 0.76 0.75 0.77 0.85 0.94 0.99 1.03 1.05 1.06 1.17 1.35 1.38 1.38 1.35 1.38 1.31 1.31 1.41 1.42 1.35 1.48 1.66 1.59 1.42 1.40 1.46 1.61 1.79 1.79 1.93 2.19 2.53 2.97 3.76 4.11 3.94 3.62 3.46
1.03 0.96 0.95 0.94 0.94 0.92 0.89 0.82 0.82 0.92 1.01 1.01 0.99 0.92 0.95 1.10 1.20 1.28 1.30 1.28 1.32 1.44 1.48 1.53 1.36 1.40 1.46 1.46 1.46 1.42 1.37 1.45 1.55 1.62 1.57 1.65 1.87 2.33 3.05 3.74 4.16 4.12 4.03
0.83 0.83 0.91 0.90 0.93 0.96 0.97 0.96 0.97 0.99 1.09 1.04 1.02 0.95 0.91 0.97 1.10 1.27 1.29 1.25 1.25 1.43 1.58 1.67 1.57 1.56 1.54 1.52 1.54 1.52 1.41 1.45 1.39 1.47 1.51 1.46 1.69 1.72 2.20 2.88 3.46 3.68 3.91
0.75 0.77 0.79 0.83 0.82 0.89 0.95 0.98 1.09 1.14 1.16 1.12 1.10 1.02 1.00 1.06 1.18 1.37 1.49 1.48 1.43 1.47 1.53 1.53 1.63 1.66 1.66 1.67 1.57 1.55 1.52 1.48 1.50 1.41 1.49 1.52 1.48 1.60 1.83 2.15 2.64 3.01 3.31
0.75 0.74 0.73 0.78 0.79 0.82 0.93 1.03 1.22 1.35 1.33 1.33 1.23 1.15 1.20 1.35 1.50 1.64 1.66 1.74 1.77 1.70 1.71 1.69 1.76 1.73 1.66 1.74 1.59 1.48 1.48 1.40 1.54 1.64 1.61 1.65 1.56 1.53 1.89 2.13 2.21 2.26 2.72
0.70 0.72 0.72 0.71 0.77 0.80 0.83 0.97 1.20 1.48 1.60 1.69 1.59 1.39 1.34 1.48 1.77 2.02 1.97 2.05 2.13 2.08 2.05 2.04 2.28 2.24 1.98 1.79 1.89 1.74 1.58 1.46 1.65 1.72 1.71 1.83 1.85 1.92 2.14 2.17 2.02 1.94 1.93
0.58 0.64 0.68 0.68 0.74 0.76 0.79 0.97 1.15 1.32 1.34 1.49 1.59 1.55 1.47 1.46 1.64 1.81 2.09 2.23 2.21 2.35 2.47 2.44 2.82 2.97 2.47 2.03 2.17 2.45 2.18 1.99 1.81 1.68 1.74 1.84 2.01 2.20 2.28 2.14 1.96 1.78 1.68
0.49 0.49 0.53 0.57 0.65 0.75 0.86 1.07 1.31 1.55 1.64 1.64 1.54 1.61 1.62 1.53 1.59 1.73 1.88 2.03 2.08 2.23 2.42 2.54 2.87 3.43 3.19 2.52 2.34 2.79 2.60 2.41 2.27 1.94 1.77 1.78 1.89 2.17 2.44 2.37 2.13 1.87 1.67
0.47 0.48 0.51 0.60 0.73 0.91 1.09 1.30 1.54 1.74 1.79 1.66 1.65 1.67 1.56 1.48 1.46 1.59 1.73 1.84 1.96 2.02 2.20 2.30 2.44 3.03 3.46 3.12 2.82 2.52 2.22 2.20 2.41 2.40 2.03 1.82 1.82 1.97 2.20 2.20 2.07 2.01 1.84
0.56 0.63 0.68 0.83 1.03 1.27 1.46 1.71 2.00 1.97 1.85 1.75 1.69 1.65 1.60 1.59 1.55 1.55 1.73 1.78 1.79 1.88 2.02 2.36 2.63 2.94 3.20 3.24 3.23 3.00 2.69 2.41 2.07 2.37 2.45 2.11 1.97 1.92 1.97 2.04 1.95 1.93 1.91
0.87 1.04 1.24 1.45 1.58 1.66 1.77 1.90 2.01 1.98 1.98 1.92 1.72 1.62 1.59 1.65 1.71 1.71 1.76 1.78 1.75 1.80 1.93 2.18 2.50 2.73 3.06 3.31 3.28 3.08 2.95 2.82 2.55 2.49 2.38 2.23 2.24 2.09 1.96 1.91 1.78 1.76 1.90